<?xml version="1.0" encoding="UTF-8" standalone="no" ?><gpx xmlns="http://www.topografix.com/GPX/1/1" xmlns:gpxx="http://www.garmin.com/xmlschemas/GpxExtensions/v3" xmlns:wptx1="http://www.garmin.com/xmlschemas/WaypointExtension/v1" xmlns:gpxtpx="http://www.garmin.com/xmlschemas/TrackPointExtension/v1" creator="GuideVTT.com" version="1.1" xmlns:xsi="http://www.w3.org/2001/XMLSchema-instance" xsi:schemaLocation="http://www.topografix.com/GPX/1/1 http://www.topografix.com/GPX/1/1/gpx.xsd http://www.garmin.com/xmlschemas/GpxExtensions/v3 http://www8.garmin.com/xmlschemas/GpxExtensionsv3.xsd http://www.garmin.com/xmlschemas/WaypointExtension/v1 http://www8.garmin.com/xmlschemas/WaypointExtensionv1.xsd http://www.garmin.com/xmlschemas/TrackPointExtension/v1 http://www.garmin.com/xmlschemas/TrackPointExtensionv1.xsd">
<metadata><link href="http://www.garmin.com"><text>Garmin International</text></link><time>2013-06-22T15:13:50Z</time></metadata>
<trk><name>grandraid.gpx</name><extensions><gpxx:TrackExtension><gpxx:DisplayColor>Cyan</gpxx:DisplayColor></gpxx:TrackExtension></extensions><trkseg>
<trkpt lat="46.17857865" lon="7.40431963"><ele>38.1</ele><time>1989-12-31T00:00:00Z</time></trkpt>
<trkpt lat="46.17751859" lon="7.40403422"><ele>38.1</ele><time>1989-12-31T00:00:00Z</time></trkpt>
<trkpt lat="46.17710352" lon="7.40392685"><ele>1238.7961424688</ele><time>1989-12-31T00:00:00Z</time></trkpt>
<trkpt lat="46.17598772" lon="7.40315437"><ele>1238.7961424688</ele><time>1989-12-31T00:00:00Z</time></trkpt>
<trkpt lat="46.17534399" lon="7.40306854"><ele>1236.8732909424</ele><time>1989-12-31T00:00:00Z</time></trkpt>
<trkpt lat="46.17373466" lon="7.40012884"><ele>1230.6250000608</ele><time>1989-12-31T00:00:00Z</time></trkpt>
<trkpt lat="46.17225409" lon="7.40098715"><ele>1230.6250000608</ele><time>1989-12-31T00:00:00Z</time></trkpt>
<trkpt lat="46.17171764" lon="7.40092278"><ele>1228.7023926792</ele><time>1989-12-31T00:00:00Z</time></trkpt>
<trkpt lat="46.17130995" lon="7.40019321"><ele>1227.2602540344</ele><time>1989-12-31T00:00:00Z</time></trkpt>
<trkpt lat="46.17055893" lon="7.39969969"><ele>1228.2216797976</ele><time>1989-12-31T00:00:00Z</time></trkpt>
<trkpt lat="46.16819859" lon="7.39706039"><ele>1248.8898925632</ele><time>1989-12-31T00:00:00Z</time></trkpt>
<trkpt lat="46.16643906" lon="7.39648104"><ele>1258.9836426576</ele><time>1989-12-31T00:00:00Z</time></trkpt>
<trkpt lat="46.16695404" lon="7.39626646"><ele>1265.2324218288</ele><time>1989-12-31T00:00:00Z</time></trkpt>
<trkpt lat="46.16515160" lon="7.39615917"><ele>1275.3259277784</ele><time>1989-12-31T00:00:00Z</time></trkpt>
<trkpt lat="46.16435766" lon="7.39474297"><ele>1276.768310568</ele><time>1989-12-31T00:00:00Z</time></trkpt>
<trkpt lat="46.16268396" lon="7.39564419"><ele>1275.80664066</ele><time>1989-12-31T00:00:00Z</time></trkpt>
<trkpt lat="46.16124630" lon="7.39493608"><ele>1278.210205068</ele><time>1989-12-31T00:00:00Z</time></trkpt>
<trkpt lat="46.16008759" lon="7.39373446"><ele>1278.210205068</ele><time>1989-12-31T00:00:00Z</time></trkpt>
<trkpt lat="46.15927219" lon="7.39377737"><ele>1280.1328124496</ele><time>1989-12-31T00:00:00Z</time></trkpt>
<trkpt lat="46.15880013" lon="7.39324093"><ele>1281.5747069496</ele><time>1989-12-31T00:00:00Z</time></trkpt>
<trkpt lat="46.15886450" lon="7.39291906"><ele>1284.939452976</ele><time>1989-12-31T00:00:00Z</time></trkpt>
<trkpt lat="46.15933657" lon="7.39334822"><ele>1292.1494140704</ele><time>1989-12-31T00:00:00Z</time></trkpt>
<trkpt lat="46.15976572" lon="7.39315510"><ele>1293.1105956888</ele><time>1989-12-31T00:00:00Z</time></trkpt>
<trkpt lat="46.15768433" lon="7.39272594"><ele>1312.3369139544</ele><time>1989-12-31T00:00:00Z</time></trkpt>
<trkpt lat="46.15530252" lon="7.39161015"><ele>1321.4692382856</ele><time>1989-12-31T00:00:00Z</time></trkpt>
<trkpt lat="46.15468025" lon="7.39085913"><ele>1328.67944322</ele><time>1989-12-31T00:00:00Z</time></trkpt>
<trkpt lat="46.15712643" lon="7.39161015"><ele>1348.3862305272</ele><time>1989-12-31T00:00:00Z</time></trkpt>
<trkpt lat="46.15834951" lon="7.39130974"><ele>1367.132080056</ele><time>1989-12-31T00:00:00Z</time></trkpt>
<trkpt lat="46.15858555" lon="7.39023685"><ele>1376.264648532</ele><time>1989-12-31T00:00:00Z</time></trkpt>
<trkpt lat="46.15843534" lon="7.38847733"><ele>1389.7231446528</ele><time>1989-12-31T00:00:00Z</time></trkpt>
<trkpt lat="46.15886450" lon="7.38817692"><ele>1402.7006834424</ele><time>1989-12-31T00:00:00Z</time></trkpt>
<trkpt lat="46.15897179" lon="7.38755465"><ele>1411.8334960632</ele><time>1989-12-31T00:00:00Z</time></trkpt>
<trkpt lat="46.15970135" lon="7.38738298"><ele>1420.004638776</ele><time>1989-12-31T00:00:00Z</time></trkpt>
<trkpt lat="46.16137505" lon="7.38905668"><ele>1449.8054200176</ele><time>1989-12-31T00:00:00Z</time></trkpt>
<trkpt lat="46.16094589" lon="7.38721132"><ele>1464.7058106384</ele><time>1989-12-31T00:00:00Z</time></trkpt>
<trkpt lat="46.16197586" lon="7.38806963"><ele>1473.3579100728</ele><time>1989-12-31T00:00:00Z</time></trkpt>
<trkpt lat="46.16307020" lon="7.38826275"><ele>1482.490234404</ele><time>1989-12-31T00:00:00Z</time></trkpt>
<trkpt lat="46.16210461" lon="7.38714695"><ele>1496.4294434064</ele><time>1989-12-31T00:00:00Z</time></trkpt>
<trkpt lat="46.16167545" lon="7.38611698"><ele>1505.081298696</ele><time>1989-12-31T00:00:00Z</time></trkpt>
<trkpt lat="46.16090298" lon="7.38558054"><ele>1512.7717285272</ele><time>1989-12-31T00:00:00Z</time></trkpt>
<trkpt lat="46.15895033" lon="7.38540888"><ele>1516.6171874352</ele><time>1989-12-31T00:00:00Z</time></trkpt>
<trkpt lat="46.15834951" lon="7.38448620"><ele>1517.5783690536</ele><time>1989-12-31T00:00:00Z</time></trkpt>
<trkpt lat="46.15736246" lon="7.38461494"><ele>1519.50122058</ele><time>1989-12-31T00:00:00Z</time></trkpt>
<trkpt lat="46.15699768" lon="7.38558054"><ele>1519.50122058</ele><time>1989-12-31T00:00:00Z</time></trkpt>
<trkpt lat="46.15592480" lon="7.38502264"><ele>1519.9816893168</ele><time>1989-12-31T00:00:00Z</time></trkpt>
<trkpt lat="46.15345716" lon="7.38478661"><ele>1523.346435648</ele><time>1989-12-31T00:00:00Z</time></trkpt>
<trkpt lat="46.14914417" lon="7.38570929"><ele>1527.672119148</ele><time>1989-12-31T00:00:00Z</time></trkpt>
<trkpt lat="46.14826441" lon="7.38562346"><ele>1527.672119148</ele><time>1989-12-31T00:00:00Z</time></trkpt>
<trkpt lat="46.14742756" lon="7.38495827"><ele>1528.1528320296</ele><time>1989-12-31T00:00:00Z</time></trkpt>
<trkpt lat="46.14691257" lon="7.38553762"><ele>1527.1916504112</ele><time>1989-12-31T00:00:00Z</time></trkpt>
<trkpt lat="46.14523888" lon="7.38641739"><ele>1525.2687988848</ele><time>1989-12-31T00:00:00Z</time></trkpt>
<trkpt lat="46.14450932" lon="7.38639593"><ele>1526.230224648</ele><time>1989-12-31T00:00:00Z</time></trkpt>
<trkpt lat="46.14268541" lon="7.38738298"><ele>1522.8657227664</ele><time>1989-12-31T00:00:00Z</time></trkpt>
<trkpt lat="46.13837242" lon="7.38809109"><ele>1528.6335449112</ele><time>1989-12-31T00:00:00Z</time></trkpt>
<trkpt lat="46.13744974" lon="7.38858461"><ele>1530.0754394112</ele><time>1989-12-31T00:00:00Z</time></trkpt>
<trkpt lat="46.13517523" lon="7.38862753"><ele>1531.9980467928</ele><time>1989-12-31T00:00:00Z</time></trkpt>
<trkpt lat="46.13416672" lon="7.38824129"><ele>1533.4401854376</ele><time>1989-12-31T00:00:00Z</time></trkpt>
<trkpt lat="46.13352299" lon="7.38920689"><ele>1532.959472556</ele><time>1989-12-31T00:00:00Z</time></trkpt>
<trkpt lat="46.13090515" lon="7.39058018"><ele>1534.8823240824</ele><time>1989-12-31T00:00:00Z</time></trkpt>
<trkpt lat="46.12968206" lon="7.39068747"><ele>1538.7275391504</ele><time>1989-12-31T00:00:00Z</time></trkpt>
<trkpt lat="46.12890959" lon="7.39021540"><ele>1538.7275391504</ele><time>1989-12-31T00:00:00Z</time></trkpt>
<trkpt lat="46.12893105" lon="7.39083767"><ele>1539.2080078872</ele><time>1989-12-31T00:00:00Z</time></trkpt>
<trkpt lat="46.12951040" lon="7.39156723"><ele>1538.7275391504</ele><time>1989-12-31T00:00:00Z</time></trkpt>
<trkpt lat="46.13049746" lon="7.39169598"><ele>1537.2854005056</ele><time>1989-12-31T00:00:00Z</time></trkpt>
<trkpt lat="46.13103390" lon="7.39231825"><ele>1533.9208983192</ele><time>1989-12-31T00:00:00Z</time></trkpt>
<trkpt lat="46.13066912" lon="7.39227533"><ele>1537.7661133872</ele><time>1989-12-31T00:00:00Z</time></trkpt>
<trkpt lat="46.13210678" lon="7.39386320"><ele>1559.8762206528</ele><time>1989-12-31T00:00:00Z</time></trkpt>
<trkpt lat="46.13440275" lon="7.39570856"><ele>1582.9479981312</ele><time>1989-12-31T00:00:00Z</time></trkpt>
<trkpt lat="46.12893105" lon="7.39405632"><ele>1631.0141601648</ele><time>1989-12-31T00:00:00Z</time></trkpt>
<trkpt lat="46.12779379" lon="7.39403486"><ele>1637.2624510464</ele><time>1989-12-31T00:00:00Z</time></trkpt>
<trkpt lat="46.12594843" lon="7.39459276"><ele>1651.2016600488</ele><time>1989-12-31T00:00:00Z</time></trkpt>
<trkpt lat="46.12504721" lon="7.39562273"><ele>1655.5275879984</ele><time>1989-12-31T00:00:00Z</time></trkpt>
<trkpt lat="46.12667799" lon="7.39534378"><ele>1683.88647474</ele><time>1989-12-31T00:00:00Z</time></trkpt>
<trkpt lat="46.12914562" lon="7.39628792"><ele>1715.610107508</ele><time>1989-12-31T00:00:00Z</time></trkpt>
<trkpt lat="46.13058329" lon="7.39781141"><ele>1730.5104981288</ele><time>1989-12-31T00:00:00Z</time></trkpt>
<trkpt lat="46.13081932" lon="7.39841223"><ele>1736.2783202736</ele><time>1989-12-31T00:00:00Z</time></trkpt>
<trkpt lat="46.13322258" lon="7.40010738"><ele>1760.3112793704</ele><time>1989-12-31T00:00:00Z</time></trkpt>
<trkpt lat="46.13118410" lon="7.39989281"><ele>1776.653808636</ele><time>1989-12-31T00:00:00Z</time></trkpt>
<trkpt lat="46.13047600" lon="7.39952803"><ele>1785.7861326624</ele><time>1989-12-31T00:00:00Z</time></trkpt>
<trkpt lat="46.12908125" lon="7.40006447"><ele>1793.4768066384</ele><time>1989-12-31T00:00:00Z</time></trkpt>
<trkpt lat="46.12830877" lon="7.39961386"><ele>1810.2998046408</ele><time>1989-12-31T00:00:00Z</time></trkpt>
<trkpt lat="46.12631321" lon="7.40032196"><ele>1828.0842284064</ele><time>1989-12-31T00:00:00Z</time></trkpt>
<trkpt lat="46.12532616" lon="7.40030050"><ele>1838.6589355272</ele><time>1989-12-31T00:00:00Z</time></trkpt>
<trkpt lat="46.12275124" lon="7.40212440"><ele>1859.8076173344</ele><time>1989-12-31T00:00:00Z</time></trkpt>
<trkpt lat="46.12365246" lon="7.40193129"><ele>1878.5534668632</ele><time>1989-12-31T00:00:00Z</time></trkpt>
<trkpt lat="46.12663507" lon="7.40319729"><ele>1922.2934571072</ele><time>1989-12-31T00:00:00Z</time></trkpt>
<trkpt lat="46.12732172" lon="7.40399122"><ele>1930.9453123968</ele><time>1989-12-31T00:00:00Z</time></trkpt>
<trkpt lat="46.12818003" lon="7.40437746"><ele>1940.0778808728</ele><time>1989-12-31T00:00:00Z</time></trkpt>
<trkpt lat="46.12942457" lon="7.40364790"><ele>1952.5749512304</ele><time>1989-12-31T00:00:00Z</time></trkpt>
<trkpt lat="46.12955332" lon="7.40390539"><ele>1953.5363769936</ele><time>1989-12-31T00:00:00Z</time></trkpt>
<trkpt lat="46.12798691" lon="7.40568638"><ele>1973.7238768776</ele><time>1989-12-31T00:00:00Z</time></trkpt>
<trkpt lat="46.12856627" lon="7.40577221"><ele>1977.5690919456</ele><time>1989-12-31T00:00:00Z</time></trkpt>
<trkpt lat="46.12882376" lon="7.40622282"><ele>1979.9724122088</ele><time>1989-12-31T00:00:00Z</time></trkpt>
<trkpt lat="46.12880230" lon="7.40708113"><ele>1982.8564453536</ele><time>1989-12-31T00:00:00Z</time></trkpt>
<trkpt lat="46.12766504" lon="7.40858316"><ele>1992.950195448</ele><time>1989-12-31T00:00:00Z</time></trkpt>
<trkpt lat="46.12925291" lon="7.40982771"><ele>2011.6960449768</ele><time>1989-12-31T00:00:00Z</time></trkpt>
<trkpt lat="46.13008976" lon="7.40999937"><ele>2023.231933716</ele><time>1989-12-31T00:00:00Z</time></trkpt>
<trkpt lat="46.13056183" lon="7.40976334"><ele>2027.0771484792</ele><time>1989-12-31T00:00:00Z</time></trkpt>
<trkpt lat="46.12985373" lon="7.41068602"><ele>2038.6130372184</ele><time>1989-12-31T00:00:00Z</time></trkpt>
<trkpt lat="46.12916708" lon="7.41064310"><ele>2045.822998008</ele><time>1989-12-31T00:00:00Z</time></trkpt>
<trkpt lat="46.12959623" lon="7.41115808"><ele>2053.0327149576</ele><time>1989-12-31T00:00:00Z</time></trkpt>
<trkpt lat="46.13126993" lon="7.41137266"><ele>2073.7009277232</ele><time>1989-12-31T00:00:00Z</time></trkpt>
<trkpt lat="46.13221407" lon="7.41242409"><ele>2089.0820312256</ele><time>1989-12-31T00:00:00Z</time></trkpt>
<trkpt lat="46.13300800" lon="7.41281033"><ele>2100.6179199648</ele><time>1989-12-31T00:00:00Z</time></trkpt>
<trkpt lat="46.13429546" lon="7.41242409"><ele>2115.9990234672</ele><time>1989-12-31T00:00:00Z</time></trkpt>
<trkpt lat="46.13459587" lon="7.41293907"><ele>2125.1315919432</ele><time>1989-12-31T00:00:00Z</time></trkpt>
<trkpt lat="46.13648415" lon="7.41388321"><ele>2150.1259764984</ele><time>1989-12-31T00:00:00Z</time></trkpt>
<trkpt lat="46.13903761" lon="7.41296053"><ele>2170.7941895688</ele><time>1989-12-31T00:00:00Z</time></trkpt>
<trkpt lat="46.14253521" lon="7.41338968"><ele>2183.2912596216</ele><time>1989-12-31T00:00:00Z</time></trkpt>
<trkpt lat="46.14317894" lon="7.41476297"><ele>2190.9819335976</ele><time>1989-12-31T00:00:00Z</time></trkpt>
<trkpt lat="46.14438057" lon="7.41568565"><ele>2196.7497557424</ele><time>1989-12-31T00:00:00Z</time></trkpt>
<trkpt lat="46.14519596" lon="7.41551399"><ele>2194.8271483608</ele><time>1989-12-31T00:00:00Z</time></trkpt>
<trkpt lat="46.14596844" lon="7.41491318"><ele>2196.7497557424</ele><time>1989-12-31T00:00:00Z</time></trkpt>
<trkpt lat="46.14637613" lon="7.41525650"><ele>2199.633789192</ele><time>1989-12-31T00:00:00Z</time></trkpt>
<trkpt lat="46.14583969" lon="7.41652250"><ele>2206.8437499816</ele><time>1989-12-31T00:00:00Z</time></trkpt>
<trkpt lat="46.14519596" lon="7.41974115"><ele>2222.7055663656</ele><time>1989-12-31T00:00:00Z</time></trkpt>
<trkpt lat="46.14528179" lon="7.42150068"><ele>2228.953857552</ele><time>1989-12-31T00:00:00Z</time></trkpt>
<trkpt lat="46.14375830" lon="7.42476225"><ele>2235.2023925784</ele><time>1989-12-31T00:00:00Z</time></trkpt>
<trkpt lat="46.14302874" lon="7.42557764"><ele>2230.3959961968</ele><time>1989-12-31T00:00:00Z</time></trkpt>
<trkpt lat="46.14294291" lon="7.42692947"><ele>2228.4733888152</ele><time>1989-12-31T00:00:00Z</time></trkpt>
<trkpt lat="46.14247084" lon="7.42853880"><ele>2232.3186035784</ele><time>1989-12-31T00:00:00Z</time></trkpt>
<trkpt lat="46.14214897" lon="7.43270159"><ele>2249.1416015808</ele><time>1989-12-31T00:00:00Z</time></trkpt>
<trkpt lat="46.14159107" lon="7.43480444"><ele>2237.1252441048</ele><time>1989-12-31T00:00:00Z</time></trkpt>
<trkpt lat="46.13948822" lon="7.43851662"><ele>2219.3408203392</ele><time>1989-12-31T00:00:00Z</time></trkpt>
<trkpt lat="46.13882303" lon="7.43860245"><ele>2217.4179688128</ele><time>1989-12-31T00:00:00Z</time></trkpt>
<trkpt lat="46.13811493" lon="7.43935347"><ele>2212.1308592448</ele><time>1989-12-31T00:00:00Z</time></trkpt>
<trkpt lat="46.13747120" lon="7.43870974"><ele>2216.937500076</ele><time>1989-12-31T00:00:00Z</time></trkpt>
<trkpt lat="46.13418818" lon="7.43866682"><ele>2232.7990723152</ele><time>1989-12-31T00:00:00Z</time></trkpt>
<trkpt lat="46.13320112" lon="7.43986845"><ele>2235.68310546</ele><time>1989-12-31T00:00:00Z</time></trkpt>
<trkpt lat="46.13217115" lon="7.43973970"><ele>2235.68310546</ele><time>1989-12-31T00:00:00Z</time></trkpt>
<trkpt lat="46.13043308" lon="7.44055510"><ele>2228.4733888152</ele><time>1989-12-31T00:00:00Z</time></trkpt>
<trkpt lat="46.12850189" lon="7.44267941"><ele>2204.4404297184</ele><time>1989-12-31T00:00:00Z</time></trkpt>
<trkpt lat="46.12843752" lon="7.44345188"><ele>2209.7275389816</ele><time>1989-12-31T00:00:00Z</time></trkpt>
<trkpt lat="46.12753630" lon="7.44478226"><ele>2201.5563965736</ele><time>1989-12-31T00:00:00Z</time></trkpt>
<trkpt lat="46.12753630" lon="7.44581223"><ele>2203.9597168368</ele><time>1989-12-31T00:00:00Z</time></trkpt>
<trkpt lat="46.12820148" lon="7.44832277"><ele>2213.092285008</ele><time>1989-12-31T00:00:00Z</time></trkpt>
<trkpt lat="46.12738609" lon="7.45072603"><ele>2209.7275389816</ele><time>1989-12-31T00:00:00Z</time></trkpt>
<trkpt lat="46.12639904" lon="7.45270014"><ele>2194.8271483608</ele><time>1989-12-31T00:00:00Z</time></trkpt>
<trkpt lat="46.12388849" lon="7.45491028"><ele>2162.1423339744</ele><time>1989-12-31T00:00:00Z</time></trkpt>
<trkpt lat="46.12238646" lon="7.45544672"><ele>2148.6838378536</ele><time>1989-12-31T00:00:00Z</time></trkpt>
<trkpt lat="46.12176418" lon="7.45531797"><ele>2143.3967285904</ele><time>1989-12-31T00:00:00Z</time></trkpt>
<trkpt lat="46.12116337" lon="7.45587587"><ele>2138.1093748776</ele><time>1989-12-31T00:00:00Z</time></trkpt>
<trkpt lat="46.12011194" lon="7.45559692"><ele>2130.8996582328</ele><time>1989-12-31T00:00:00Z</time></trkpt>
<trkpt lat="46.11940384" lon="7.45634794"><ele>2108.308593636</ele><time>1989-12-31T00:00:00Z</time></trkpt>
<trkpt lat="46.11961842" lon="7.45720625"><ele>2094.3693846336</ele><time>1989-12-31T00:00:00Z</time></trkpt>
<trkpt lat="46.11983299" lon="7.45722771"><ele>2091.0046386072</ele><time>1989-12-31T00:00:00Z</time></trkpt>
<trkpt lat="46.11929655" lon="7.45797873"><ele>2068.8945313416</ele><time>1989-12-31T00:00:00Z</time></trkpt>
<trkpt lat="46.12045527" lon="7.45900869"><ele>2038.1323243368</ele><time>1989-12-31T00:00:00Z</time></trkpt>
<trkpt lat="46.12187147" lon="7.45903015"><ele>2017.9445800032</ele><time>1989-12-31T00:00:00Z</time></trkpt>
<trkpt lat="46.12146378" lon="7.46006012"><ele>1991.0275877616</ele><time>1989-12-31T00:00:00Z</time></trkpt>
<trkpt lat="46.12272978" lon="7.45933056"><ele>1982.3759766168</ele><time>1989-12-31T00:00:00Z</time></trkpt>
<trkpt lat="46.12498283" lon="7.46042490"><ele>1977.088622904</ele><time>1989-12-31T00:00:00Z</time></trkpt>
<trkpt lat="46.12633467" lon="7.46042490"><ele>1972.7626952592</ele><time>1989-12-31T00:00:00Z</time></trkpt>
<trkpt lat="46.12532616" lon="7.46096134"><ele>1949.6911622304</ele><time>1989-12-31T00:00:00Z</time></trkpt>
<trkpt lat="46.12249374" lon="7.46156216"><ele>1911.2382812496</ele><time>1989-12-31T00:00:00Z</time></trkpt>
<trkpt lat="46.12412453" lon="7.46186256"><ele>1890.0893556024</ele><time>1989-12-31T00:00:00Z</time></trkpt>
<trkpt lat="46.12489700" lon="7.46231318"><ele>1880.4760742448</ele><time>1989-12-31T00:00:00Z</time></trkpt>
<trkpt lat="46.12350225" lon="7.46267796"><ele>1860.7690430976</ele><time>1989-12-31T00:00:00Z</time></trkpt>
<trkpt lat="46.12292290" lon="7.46387959"><ele>1847.3105469768</ele><time>1989-12-31T00:00:00Z</time></trkpt>
<trkpt lat="46.12438202" lon="7.46353626"><ele>1831.9294434744</ele><time>1989-12-31T00:00:00Z</time></trkpt>
<trkpt lat="46.12524033" lon="7.46398687"><ele>1823.2778320248</ele><time>1989-12-31T00:00:00Z</time></trkpt>
<trkpt lat="46.12566948" lon="7.46387959"><ele>1818.4709473536</ele><time>1989-12-31T00:00:00Z</time></trkpt>
<trkpt lat="46.12485409" lon="7.46454477"><ele>1804.0515137592</ele><time>1989-12-31T00:00:00Z</time></trkpt>
<trkpt lat="46.12579823" lon="7.46439457"><ele>1795.39941402</ele><time>1989-12-31T00:00:00Z</time></trkpt>
<trkpt lat="46.12496138" lon="7.46503830"><ele>1785.3054197808</ele><time>1989-12-31T00:00:00Z</time></trkpt>
<trkpt lat="46.12446785" lon="7.46490955"><ele>1778.5764160176</ele><time>1989-12-31T00:00:00Z</time></trkpt>
<trkpt lat="46.12275124" lon="7.46611118"><ele>1768.96313466</ele><time>1989-12-31T00:00:00Z</time></trkpt>
<trkpt lat="46.12182856" lon="7.46621847"><ele>1759.350097752</ele><time>1989-12-31T00:00:00Z</time></trkpt>
<trkpt lat="46.12159252" lon="7.46714115"><ele>1752.6206053944</ele><time>1989-12-31T00:00:00Z</time></trkpt>
<trkpt lat="46.12086296" lon="7.46742010"><ele>1742.046386868</ele><time>1989-12-31T00:00:00Z</time></trkpt>
<trkpt lat="46.12176418" lon="7.46746302"><ele>1732.9135742472</ele><time>1989-12-31T00:00:00Z</time></trkpt>
<trkpt lat="46.12208605" lon="7.46688366"><ele>1730.0297852472</ele><time>1989-12-31T00:00:00Z</time></trkpt>
<trkpt lat="46.12560511" lon="7.46705532"><ele>1703.5935058872</ele><time>1989-12-31T00:00:00Z</time></trkpt>
<trkpt lat="46.12322330" lon="7.46827841"><ele>1671.8698731192</ele><time>1989-12-31T00:00:00Z</time></trkpt>
<trkpt lat="46.12245083" lon="7.46821404"><ele>1661.295654288</ele><time>1989-12-31T00:00:00Z</time></trkpt>
<trkpt lat="46.12187147" lon="7.46913671"><ele>1652.1628416672</ele><time>1989-12-31T00:00:00Z</time></trkpt>
<trkpt lat="46.12094879" lon="7.46939421"><ele>1638.2238768096</ele><time>1989-12-31T00:00:00Z</time></trkpt>
<trkpt lat="46.12056255" lon="7.46988773"><ele>1634.3786620464</ele><time>1989-12-31T00:00:00Z</time></trkpt>
<trkpt lat="46.11974716" lon="7.46896505"><ele>1628.13012702</ele><time>1989-12-31T00:00:00Z</time></trkpt>
<trkpt lat="46.11822367" lon="7.46808529"><ele>1613.710205136</ele><time>1989-12-31T00:00:00Z</time></trkpt>
<trkpt lat="46.11788034" lon="7.46825695"><ele>1611.7875977544</ele><time>1989-12-31T00:00:00Z</time></trkpt>
<trkpt lat="46.11790180" lon="7.46905088"><ele>1604.0971679232</ele><time>1989-12-31T00:00:00Z</time></trkpt>
<trkpt lat="46.11824512" lon="7.46988773"><ele>1594.9643556072</ele><time>1989-12-31T00:00:00Z</time></trkpt>
<trkpt lat="46.11833096" lon="7.47306347"><ele>1565.644531392</ele><time>1989-12-31T00:00:00Z</time></trkpt>
<trkpt lat="46.11807346" lon="7.47512341"><ele>1562.7602537976</ele><time>1989-12-31T00:00:00Z</time></trkpt>
<trkpt lat="46.11830950" lon="7.47666836"><ele>1554.1086426528</ele><time>1989-12-31T00:00:00Z</time></trkpt>
<trkpt lat="46.11685038" lon="7.48113155"><ele>1526.230224648</ele><time>1989-12-31T00:00:00Z</time></trkpt>
<trkpt lat="46.11631393" lon="7.48214006"><ele>1515.655761672</ele><time>1989-12-31T00:00:00Z</time></trkpt>
<trkpt lat="46.11586332" lon="7.48231173"><ele>1510.8491211456</ele><time>1989-12-31T00:00:00Z</time></trkpt>
<trkpt lat="46.11541271" lon="7.48323441"><ele>1507.484619264</ele><time>1989-12-31T00:00:00Z</time></trkpt>
<trkpt lat="46.11483335" lon="7.48368502"><ele>1503.1586913144</ele><time>1989-12-31T00:00:00Z</time></trkpt>
<trkpt lat="46.11423254" lon="7.48480082"><ele>1502.6779784328</ele><time>1989-12-31T00:00:00Z</time></trkpt>
<trkpt lat="46.11496210" lon="7.48514414"><ele>1502.6779784328</ele><time>1989-12-31T00:00:00Z</time></trkpt>
<trkpt lat="46.11380339" lon="7.48728991"><ele>1462.3024903752</ele><time>1989-12-31T00:00:00Z</time></trkpt>
<trkpt lat="46.11367464" lon="7.48838425"><ele>1447.882812636</ele><time>1989-12-31T00:00:00Z</time></trkpt>
<trkpt lat="46.11324549" lon="7.48872757"><ele>1444.037597568</ele><time>1989-12-31T00:00:00Z</time></trkpt>
<trkpt lat="46.11339569" lon="7.48952150"><ele>1358.960937648</ele><time>1989-12-31T00:00:00Z</time></trkpt>
<trkpt lat="46.11253738" lon="7.49110937"><ele>1352.2314452904</ele><time>1989-12-31T00:00:00Z</time></trkpt>
<trkpt lat="46.11270905" lon="7.49134541"><ele>1349.828369172</ele><time>1989-12-31T00:00:00Z</time></trkpt>
<trkpt lat="46.11346006" lon="7.49035835"><ele>1343.5798338408</ele><time>1989-12-31T00:00:00Z</time></trkpt>
<trkpt lat="46.11363173" lon="7.49104500"><ele>1344.0605470272</ele><time>1989-12-31T00:00:00Z</time></trkpt>
<trkpt lat="46.11283779" lon="7.49248266"><ele>1353.1928710536</ele><time>1989-12-31T00:00:00Z</time></trkpt>
<trkpt lat="46.11251593" lon="7.49366283"><ele>1356.55761708</ele><time>1989-12-31T00:00:00Z</time></trkpt>
<trkpt lat="46.11041307" lon="7.49718189"><ele>1365.690185556</ele><time>1989-12-31T00:00:00Z</time></trkpt>
<trkpt lat="46.11043453" lon="7.49866247"><ele>1370.4965819376</ele><time>1989-12-31T00:00:00Z</time></trkpt>
<trkpt lat="46.10951185" lon="7.49947786"><ele>1380.1098632952</ele><time>1989-12-31T00:00:00Z</time></trkpt>
<trkpt lat="46.11056328" lon="7.49889851"><ele>1380.1098632952</ele><time>1989-12-31T00:00:00Z</time></trkpt>
<trkpt lat="46.11212969" lon="7.49731064"><ele>1377.2260742952</ele><time>1989-12-31T00:00:00Z</time></trkpt>
<trkpt lat="46.11444712" lon="7.49239683"><ele>1389.2424317712</ele><time>1989-12-31T00:00:00Z</time></trkpt>
<trkpt lat="46.11562729" lon="7.49083042"><ele>1398.3747557976</ele><time>1989-12-31T00:00:00Z</time></trkpt>
<trkpt lat="46.11597061" lon="7.49123812"><ele>1404.1430665368</ele><time>1989-12-31T00:00:00Z</time></trkpt>
<trkpt lat="46.11706495" lon="7.49029398"><ele>1412.3139648</ele><time>1989-12-31T00:00:00Z</time></trkpt>
<trkpt lat="46.12019777" lon="7.48915672"><ele>1429.617675684</ele><time>1989-12-31T00:00:00Z</time></trkpt>
<trkpt lat="46.11963987" lon="7.49053001"><ele>1437.30834966</ele><time>1989-12-31T00:00:00Z</time></trkpt>
<trkpt lat="46.11796618" lon="7.49231100"><ele>1457.4960936888</ele><time>1989-12-31T00:00:00Z</time></trkpt>
<trkpt lat="46.11745119" lon="7.49389887"><ele>1466.62841802</ele><time>1989-12-31T00:00:00Z</time></trkpt>
<trkpt lat="46.11794472" lon="7.49325514"><ele>1475.2802733096</ele><time>1989-12-31T00:00:00Z</time></trkpt>
<trkpt lat="46.11959696" lon="7.49263287"><ele>1495.9487305248</ele><time>1989-12-31T00:00:00Z</time></trkpt>
<trkpt lat="46.12013340" lon="7.49183893"><ele>1507.484619264</ele><time>1989-12-31T00:00:00Z</time></trkpt>
<trkpt lat="46.12185001" lon="7.49076605"><ele>1523.8269043848</ele><time>1989-12-31T00:00:00Z</time></trkpt>
<trkpt lat="46.12348080" lon="7.49059439"><ele>1537.7661133872</ele><time>1989-12-31T00:00:00Z</time></trkpt>
<trkpt lat="46.12341642" lon="7.48937130"><ele>1548.3405760584</ele><time>1989-12-31T00:00:00Z</time></trkpt>
<trkpt lat="46.12388849" lon="7.48692513"><ele>1570.9316406552</ele><time>1989-12-31T00:00:00Z</time></trkpt>
<trkpt lat="46.12446785" lon="7.48705387"><ele>1574.7768554184</ele><time>1989-12-31T00:00:00Z</time></trkpt>
<trkpt lat="46.12399578" lon="7.48754740"><ele>1579.5832521048</ele><time>1989-12-31T00:00:00Z</time></trkpt>
<trkpt lat="46.12388849" lon="7.48855591"><ele>1587.273925776</ele><time>1989-12-31T00:00:00Z</time></trkpt>
<trkpt lat="46.12485409" lon="7.49070168"><ele>1606.9809569232</ele><time>1989-12-31T00:00:00Z</time></trkpt>
<trkpt lat="46.12453222" lon="7.48855591"><ele>1628.6108399016</ele><time>1989-12-31T00:00:00Z</time></trkpt>
<trkpt lat="46.12485409" lon="7.48810530"><ele>1634.3786620464</ele><time>1989-12-31T00:00:00Z</time></trkpt>
<trkpt lat="46.12476826" lon="7.48874903"><ele>1639.1850587328</ele><time>1989-12-31T00:00:00Z</time></trkpt>
<trkpt lat="46.12556219" lon="7.48759031"><ele>1654.5661622352</ele><time>1989-12-31T00:00:00Z</time></trkpt>
<trkpt lat="46.12622738" lon="7.48733282"><ele>1659.3728027616</ele><time>1989-12-31T00:00:00Z</time></trkpt>
<trkpt lat="46.12691402" lon="7.48634577"><ele>1664.6601561696</ele><time>1989-12-31T00:00:00Z</time></trkpt>
<trkpt lat="46.12760067" lon="7.48604536"><ele>1670.4279786192</ele><time>1989-12-31T00:00:00Z</time></trkpt>
<trkpt lat="46.12925291" lon="7.48233318"><ele>1707.919433532</ele><time>1989-12-31T00:00:00Z</time></trkpt>
<trkpt lat="46.12925291" lon="7.48546600"><ele>1732.9135742472</ele><time>1989-12-31T00:00:00Z</time></trkpt>
<trkpt lat="46.13077641" lon="7.48224735"><ele>1760.3112793704</ele><time>1989-12-31T00:00:00Z</time></trkpt>
<trkpt lat="46.13260031" lon="7.48203278"><ele>1768.0017088968</ele><time>1989-12-31T00:00:00Z</time></trkpt>
<trkpt lat="46.13429546" lon="7.48128176"><ele>1759.350097752</ele><time>1989-12-31T00:00:00Z</time></trkpt>
<trkpt lat="46.13526106" lon="7.47960806"><ele>1746.8527832496</ele><time>1989-12-31T00:00:00Z</time></trkpt>
<trkpt lat="46.13815784" lon="7.47930765"><ele>1738.6816405368</ele><time>1989-12-31T00:00:00Z</time></trkpt>
<trkpt lat="46.13931656" lon="7.47780561"><ele>1730.5104981288</ele><time>1989-12-31T00:00:00Z</time></trkpt>
<trkpt lat="46.13841534" lon="7.47793436"><ele>1728.5878907472</ele><time>1989-12-31T00:00:00Z</time></trkpt>
<trkpt lat="46.14028215" lon="7.47578859"><ele>1682.4445799352</ele><time>1989-12-31T00:00:00Z</time></trkpt>
<trkpt lat="46.14094734" lon="7.47458696"><ele>1648.7983397856</ele><time>1989-12-31T00:00:00Z</time></trkpt>
<trkpt lat="46.14232063" lon="7.47417927"><ele>1620.439453044</ele><time>1989-12-31T00:00:00Z</time></trkpt>
<trkpt lat="46.14412308" lon="7.47214079"><ele>1583.9094238944</ele><time>1989-12-31T00:00:00Z</time></trkpt>
<trkpt lat="46.14523888" lon="7.47153997"><ele>1574.7768554184</ele><time>1989-12-31T00:00:00Z</time></trkpt>
<trkpt lat="46.14568949" lon="7.47169018"><ele>1573.3349609184</ele><time>1989-12-31T00:00:00Z</time></trkpt>
<trkpt lat="46.14633322" lon="7.47265577"><ele>1571.8928222736</ele><time>1989-12-31T00:00:00Z</time></trkpt>
<trkpt lat="46.14669800" lon="7.47400761"><ele>1570.4509277736</ele><time>1989-12-31T00:00:00Z</time></trkpt>
<trkpt lat="46.14755630" lon="7.47497320"><ele>1572.3735351552</ele><time>1989-12-31T00:00:00Z</time></trkpt>
<trkpt lat="46.14781380" lon="7.47465134"><ele>1572.3735351552</ele><time>1989-12-31T00:00:00Z</time></trkpt>
<trkpt lat="46.14845753" lon="7.47171164"><ele>1570.4509277736</ele><time>1989-12-31T00:00:00Z</time></trkpt>
<trkpt lat="46.14946604" lon="7.46963024"><ele>1578.6220701816</ele><time>1989-12-31T00:00:00Z</time></trkpt>
<trkpt lat="46.14968061" lon="7.46825695"><ele>1584.8708496576</ele><time>1989-12-31T00:00:00Z</time></trkpt>
<trkpt lat="46.15064621" lon="7.46720552"><ele>1588.7160644208</ele><time>1989-12-31T00:00:00Z</time></trkpt>
<trkpt lat="46.14985228" lon="7.46853590"><ele>1603.6164550416</ele><time>1989-12-31T00:00:00Z</time></trkpt>
<trkpt lat="46.14978790" lon="7.47046709"><ele>1609.3842774912</ele><time>1989-12-31T00:00:00Z</time></trkpt>
<trkpt lat="46.14935875" lon="7.47186184"><ele>1629.57202152</ele><time>1989-12-31T00:00:00Z</time></trkpt>
<trkpt lat="46.15032434" lon="7.47087479"><ele>1643.9916992592</ele><time>1989-12-31T00:00:00Z</time></trkpt>
<trkpt lat="46.15056038" lon="7.46982336"><ele>1652.6435545488</ele><time>1989-12-31T00:00:00Z</time></trkpt>
<trkpt lat="46.15216970" lon="7.46924400"><ele>1647.3564452856</ele><time>1989-12-31T00:00:00Z</time></trkpt>
<trkpt lat="46.15274906" lon="7.46806383"><ele>1653.6049806168</ele><time>1989-12-31T00:00:00Z</time></trkpt>
<trkpt lat="46.15341425" lon="7.46778488"><ele>1656.0080567352</ele><time>1989-12-31T00:00:00Z</time></trkpt>
<trkpt lat="46.15365028" lon="7.46675491"><ele>1654.0856934984</ele><time>1989-12-31T00:00:00Z</time></trkpt>
<trkpt lat="46.15429401" lon="7.46641159"><ele>1653.1242674304</ele><time>1989-12-31T00:00:00Z</time></trkpt>
<trkpt lat="46.15442276" lon="7.46581078"><ele>1651.6823729304</ele><time>1989-12-31T00:00:00Z</time></trkpt>
<trkpt lat="46.15483046" lon="7.46585369"><ele>1657.9309082616</ele><time>1989-12-31T00:00:00Z</time></trkpt>
<trkpt lat="46.15757704" lon="7.46392250"><ele>1690.1350097664</ele><time>1989-12-31T00:00:00Z</time></trkpt>
<trkpt lat="46.15841389" lon="7.46379375"><ele>1689.6542968848</ele><time>1989-12-31T00:00:00Z</time></trkpt>
<trkpt lat="46.15940094" lon="7.46287107"><ele>1697.344970556</ele><time>1989-12-31T00:00:00Z</time></trkpt>
<trkpt lat="46.15987301" lon="7.46280670"><ele>1699.2675782424</ele><time>1989-12-31T00:00:00Z</time></trkpt>
<trkpt lat="46.16047382" lon="7.46321440"><ele>1700.7094727424</ele><time>1989-12-31T00:00:00Z</time></trkpt>
<trkpt lat="46.15946531" lon="7.46375084"><ele>1731.4716797472</ele><time>1989-12-31T00:00:00Z</time></trkpt>
<trkpt lat="46.15867138" lon="7.46557474"><ele>1755.5046385392</ele><time>1989-12-31T00:00:00Z</time></trkpt>
<trkpt lat="46.15746975" lon="7.46673346"><ele>1774.2504883728</ele><time>1989-12-31T00:00:00Z</time></trkpt>
<trkpt lat="46.15731955" lon="7.46731281"><ele>1778.095703136</ele><time>1989-12-31T00:00:00Z</time></trkpt>
<trkpt lat="46.15746975" lon="7.46793509"><ele>1779.0568847544</ele><time>1989-12-31T00:00:00Z</time></trkpt>
<trkpt lat="46.15738392" lon="7.46731281"><ele>1780.9797362808</ele><time>1989-12-31T00:00:00Z</time></trkpt>
<trkpt lat="46.15811348" lon="7.46664762"><ele>1786.2668458488</ele><time>1989-12-31T00:00:00Z</time></trkpt>
<trkpt lat="46.15933657" lon="7.46662617"><ele>1788.6704102568</ele><time>1989-12-31T00:00:00Z</time></trkpt>
<trkpt lat="46.15967989" lon="7.46611118"><ele>1798.28320302</ele><time>1989-12-31T00:00:00Z</time></trkpt>
<trkpt lat="46.16060257" lon="7.46568203"><ele>1808.3771972592</ele><time>1989-12-31T00:00:00Z</time></trkpt>
<trkpt lat="46.15998030" lon="7.46649742"><ele>1820.39379888</ele><time>1989-12-31T00:00:00Z</time></trkpt>
<trkpt lat="46.15978718" lon="7.46735573"><ele>1827.6035155248</ele><time>1989-12-31T00:00:00Z</time></trkpt>
<trkpt lat="46.15877867" lon="7.46797800"><ele>1839.6201171456</ele><time>1989-12-31T00:00:00Z</time></trkpt>
<trkpt lat="46.15854263" lon="7.46982336"><ele>1854.0400390296</ele><time>1989-12-31T00:00:00Z</time></trkpt>
<trkpt lat="46.15734100" lon="7.47029543"><ele>1863.1723633608</ele><time>1989-12-31T00:00:00Z</time></trkpt>
<trkpt lat="46.15620375" lon="7.47267723"><ele>1879.9953613632</ele><time>1989-12-31T00:00:00Z</time></trkpt>
<trkpt lat="46.15583897" lon="7.47295618"><ele>1881.4372558632</ele><time>1989-12-31T00:00:00Z</time></trkpt>
<trkpt lat="46.15549564" lon="7.47413635"><ele>1890.0893556024</ele><time>1989-12-31T00:00:00Z</time></trkpt>
<trkpt lat="46.15470171" lon="7.47445822"><ele>1894.895751984</ele><time>1989-12-31T00:00:00Z</time></trkpt>
<trkpt lat="46.15540981" lon="7.47454405"><ele>1900.6638182736</ele><time>1989-12-31T00:00:00Z</time></trkpt>
<trkpt lat="46.15605354" lon="7.47353554"><ele>1910.2768554864</ele><time>1989-12-31T00:00:00Z</time></trkpt>
<trkpt lat="46.15695477" lon="7.47312784"><ele>1922.7741699888</ele><time>1989-12-31T00:00:00Z</time></trkpt>
<trkpt lat="46.15734100" lon="7.47209787"><ele>1932.3874510416</ele><time>1989-12-31T00:00:00Z</time></trkpt>
<trkpt lat="46.15796328" lon="7.47237682"><ele>1939.5971679912</ele><time>1989-12-31T00:00:00Z</time></trkpt>
<trkpt lat="46.15882158" lon="7.47222662"><ele>1949.6911622304</ele><time>1989-12-31T00:00:00Z</time></trkpt>
<trkpt lat="46.15912199" lon="7.47250557"><ele>1954.497558612</ele><time>1989-12-31T00:00:00Z</time></trkpt>
<trkpt lat="46.16043091" lon="7.47177601"><ele>1968.4367676144</ele><time>1989-12-31T00:00:00Z</time></trkpt>
<trkpt lat="46.16083860" lon="7.47096062"><ele>1976.1271971408</ele><time>1989-12-31T00:00:00Z</time></trkpt>
<trkpt lat="46.16206169" lon="7.47072458"><ele>1991.9890135248</ele><time>1989-12-31T00:00:00Z</time></trkpt>
<trkpt lat="46.16429329" lon="7.46956587"><ele>2015.5415038848</ele><time>1989-12-31T00:00:00Z</time></trkpt>
<trkpt lat="46.16508722" lon="7.46965170"><ele>2028.0385742424</ele><time>1989-12-31T00:00:00Z</time></trkpt>
<trkpt lat="46.16440058" lon="7.46995211"><ele>2040.0549317184</ele><time>1989-12-31T00:00:00Z</time></trkpt>
<trkpt lat="46.16317749" lon="7.47123957"><ele>2049.6682127712</ele><time>1989-12-31T00:00:00Z</time></trkpt>
<trkpt lat="46.16199732" lon="7.47342825"><ele>2067.4523926968</ele><time>1989-12-31T00:00:00Z</time></trkpt>
<trkpt lat="46.16079569" lon="7.47437239"><ele>2084.275634844</ele><time>1989-12-31T00:00:00Z</time></trkpt>
<trkpt lat="46.15998030" lon="7.47660398"><ele>2105.905029228</ele><time>1989-12-31T00:00:00Z</time></trkpt>
<trkpt lat="46.15922928" lon="7.47638941"><ele>2121.2861327304</ele><time>1989-12-31T00:00:00Z</time></trkpt>
<trkpt lat="46.15792036" lon="7.47705460"><ele>2133.3027343512</ele><time>1989-12-31T00:00:00Z</time></trkpt>
<trkpt lat="46.15761995" lon="7.47849226"><ele>2143.877441472</ele><time>1989-12-31T00:00:00Z</time></trkpt>
<trkpt lat="46.15618229" lon="7.48171091"><ele>2165.5070800008</ele><time>1989-12-31T00:00:00Z</time></trkpt>
<trkpt lat="46.15532398" lon="7.48278379"><ele>2176.0815429768</ele><time>1989-12-31T00:00:00Z</time></trkpt>
<trkpt lat="46.15523815" lon="7.48656034"><ele>2202.9982910736</ele><time>1989-12-31T00:00:00Z</time></trkpt>
<trkpt lat="46.15491629" lon="7.48739719"><ele>2209.2470702448</ele><time>1989-12-31T00:00:00Z</time></trkpt>
<trkpt lat="46.15498066" lon="7.48836279"><ele>2212.6115721264</ele><time>1989-12-31T00:00:00Z</time></trkpt>
<trkpt lat="46.15429401" lon="7.48879194"><ele>2216.4567871944</ele><time>1989-12-31T00:00:00Z</time></trkpt>
<trkpt lat="46.15403652" lon="7.48995066"><ele>2223.1862792472</ele><time>1989-12-31T00:00:00Z</time></trkpt>
<trkpt lat="46.15247011" lon="7.49211788"><ele>2250.103027344</ele><time>1989-12-31T00:00:00Z</time></trkpt>
<trkpt lat="46.15216970" lon="7.49336243"><ele>2259.23559582</ele><time>1989-12-31T00:00:00Z</time></trkpt>
<trkpt lat="46.15229845" lon="7.49499321"><ele>2272.2133787544</ele><time>1989-12-31T00:00:00Z</time></trkpt>
<trkpt lat="46.15189075" lon="7.49565840"><ele>2280.8652343488</ele><time>1989-12-31T00:00:00Z</time></trkpt>
<trkpt lat="46.15191221" lon="7.49823332"><ele>2297.6882323512</ele><time>1989-12-31T00:00:00Z</time></trkpt>
<trkpt lat="46.15216970" lon="7.49784708"><ele>2302.0141603008</ele><time>1989-12-31T00:00:00Z</time></trkpt>
<trkpt lat="46.15236282" lon="7.49640942"><ele>2315.4726561168</ele><time>1989-12-31T00:00:00Z</time></trkpt>
<trkpt lat="46.15298510" lon="7.49537945"><ele>2319.7985840664</ele><time>1989-12-31T00:00:00Z</time></trkpt>
<trkpt lat="46.15339279" lon="7.49372721"><ele>2333.2570801872</ele><time>1989-12-31T00:00:00Z</time></trkpt>
<trkpt lat="46.15568876" lon="7.49246120"><ele>2351.5222168344</ele><time>1989-12-31T00:00:00Z</time></trkpt>
<trkpt lat="46.15493774" lon="7.49340534"><ele>2371.7097167184</ele><time>1989-12-31T00:00:00Z</time></trkpt>
<trkpt lat="46.15429401" lon="7.49497175"><ele>2376.5163575496</ele><time>1989-12-31T00:00:00Z</time></trkpt>
<trkpt lat="46.15446568" lon="7.49630213"><ele>2383.2456054576</ele><time>1989-12-31T00:00:00Z</time></trkpt>
<trkpt lat="46.15422964" lon="7.49919891"><ele>2400.5493163416</ele><time>1989-12-31T00:00:00Z</time></trkpt>
<trkpt lat="46.15354300" lon="7.50224590"><ele>2416.4111327256</ele><time>1989-12-31T00:00:00Z</time></trkpt>
<trkpt lat="46.15354300" lon="7.50368357"><ele>2435.1567384144</ele><time>1989-12-31T00:00:00Z</time></trkpt>
<trkpt lat="46.15292072" lon="7.50488520"><ele>2457.7478027064</ele><time>1989-12-31T00:00:00Z</time></trkpt>
<trkpt lat="46.15326405" lon="7.50821114"><ele>2499.0844726872</ele><time>1989-12-31T00:00:00Z</time></trkpt>
<trkpt lat="46.15433693" lon="7.51211643"><ele>2538.9790040232</ele><time>1989-12-31T00:00:00Z</time></trkpt>
<trkpt lat="46.15504503" lon="7.51351118"><ele>2588.9677734384</ele><time>1989-12-31T00:00:00Z</time></trkpt>
<trkpt lat="46.15483046" lon="7.51376867"><ele>2596.6582032696</ele><time>1989-12-31T00:00:00Z</time></trkpt>
<trkpt lat="46.15498066" lon="7.51398325"><ele>2609.1552733224</ele><time>1989-12-31T00:00:00Z</time></trkpt>
<trkpt lat="46.15485191" lon="7.51451969"><ele>2623.5751952064</ele><time>1989-12-31T00:00:00Z</time></trkpt>
<trkpt lat="46.15540981" lon="7.51621485"><ele>2667.795898332</ele><time>1989-12-31T00:00:00Z</time></trkpt>
<trkpt lat="46.15517378" lon="7.51683712"><ele>2694.2319335472</ele><time>1989-12-31T00:00:00Z</time></trkpt>
<trkpt lat="46.15487337" lon="7.51692295"><ele>2705.2871094048</ele><time>1989-12-31T00:00:00Z</time></trkpt>
<trkpt lat="46.15495920" lon="7.51840353"><ele>2737.0107421728</ele><time>1989-12-31T00:00:00Z</time></trkpt>
<trkpt lat="46.15577459" lon="7.51981974"><ele>2787.4799803248</ele><time>1989-12-31T00:00:00Z</time></trkpt>
<trkpt lat="46.15487337" lon="7.52198696"><ele>2781.7119140352</ele><time>1989-12-31T00:00:00Z</time></trkpt>
<trkpt lat="46.15457296" lon="7.52402544"><ele>2761.0434571248</ele><time>1989-12-31T00:00:00Z</time></trkpt>
<trkpt lat="46.15347862" lon="7.52361774"><ele>2737.0107421728</ele><time>1989-12-31T00:00:00Z</time></trkpt>
<trkpt lat="46.15268469" lon="7.52372503"><ele>2730.28125012</ele><time>1989-12-31T00:00:00Z</time></trkpt>
<trkpt lat="46.15332842" lon="7.52629995"><ele>2703.3642578784</ele><time>1989-12-31T00:00:00Z</time></trkpt>
<trkpt lat="46.15403652" lon="7.52717972"><ele>2687.502929784</ele><time>1989-12-31T00:00:00Z</time></trkpt>
<trkpt lat="46.15422964" lon="7.52838135"><ele>2666.3535155424</ele><time>1989-12-31T00:00:00Z</time></trkpt>
<trkpt lat="46.15317822" lon="7.52962589"><ele>2649.5307616848</ele><time>1989-12-31T00:00:00Z</time></trkpt>
<trkpt lat="46.15307093" lon="7.53050566"><ele>2648.5698242112</ele><time>1989-12-31T00:00:00Z</time></trkpt>
<trkpt lat="46.15377903" lon="7.53250122"><ele>2645.6855469216</ele><time>1989-12-31T00:00:00Z</time></trkpt>
<trkpt lat="46.15356445" lon="7.53393888"><ele>2656.2602540424</ele><time>1989-12-31T00:00:00Z</time></trkpt>
<trkpt lat="46.15186930" lon="7.53653526"><ele>2650.492187448</ele><time>1989-12-31T00:00:00Z</time></trkpt>
<trkpt lat="46.15161180" lon="7.53788710"><ele>2648.5698242112</ele><time>1989-12-31T00:00:00Z</time></trkpt>
<trkpt lat="46.15174055" lon="7.53913164"><ele>2645.2050781848</ele><time>1989-12-31T00:00:00Z</time></trkpt>
<trkpt lat="46.15212679" lon="7.53932476"><ele>2649.050292948</ele><time>1989-12-31T00:00:00Z</time></trkpt>
<trkpt lat="46.15208387" lon="7.54031181"><ele>2654.3374022112</ele><time>1989-12-31T00:00:00Z</time></trkpt>
<trkpt lat="46.14995956" lon="7.54159927"><ele>2677.890136716</ele><time>1989-12-31T00:00:00Z</time></trkpt>
<trkpt lat="46.14957333" lon="7.54211426"><ele>2682.215820216</ele><time>1989-12-31T00:00:00Z</time></trkpt>
<trkpt lat="46.15017414" lon="7.54192114"><ele>2686.061035284</ele><time>1989-12-31T00:00:00Z</time></trkpt>
<trkpt lat="46.15023851" lon="7.54295111"><ele>2690.386718784</ele><time>1989-12-31T00:00:00Z</time></trkpt>
<trkpt lat="46.15073204" lon="7.54325151"><ele>2695.6738280472</ele><time>1989-12-31T00:00:00Z</time></trkpt>
<trkpt lat="46.15066767" lon="7.54359484"><ele>2700.0000001416</ele><time>1989-12-31T00:00:00Z</time></trkpt>
<trkpt lat="46.15051746" lon="7.54346609"><ele>2703.3642578784</ele><time>1989-12-31T00:00:00Z</time></trkpt>
<trkpt lat="46.15064621" lon="7.54387379"><ele>2706.7290039048</ele><time>1989-12-31T00:00:00Z</time></trkpt>
<trkpt lat="46.14991665" lon="7.54404545"><ele>2714.4199220256</ele><time>1989-12-31T00:00:00Z</time></trkpt>
<trkpt lat="46.14953041" lon="7.54496813"><ele>2725.4750975784</ele><time>1989-12-31T00:00:00Z</time></trkpt>
<trkpt lat="46.15000248" lon="7.54468918"><ele>2733.6459961464</ele><time>1989-12-31T00:00:00Z</time></trkpt>
<trkpt lat="46.15004539" lon="7.54518270"><ele>2740.8564452256</ele><time>1989-12-31T00:00:00Z</time></trkpt>
<trkpt lat="46.14961624" lon="7.54597664"><ele>2754.3144530568</ele><time>1989-12-31T00:00:00Z</time></trkpt>
<trkpt lat="46.14914417" lon="7.54625559"><ele>2761.5244141512</ele><time>1989-12-31T00:00:00Z</time></trkpt>
<trkpt lat="46.14826441" lon="7.54604101"><ele>2777.3862305352</ele><time>1989-12-31T00:00:00Z</time></trkpt>
<trkpt lat="46.14873648" lon="7.54685640"><ele>2783.6347655616</ele><time>1989-12-31T00:00:00Z</time></trkpt>
<trkpt lat="46.14815712" lon="7.54777908"><ele>2793.2480469192</ele><time>1989-12-31T00:00:00Z</time></trkpt>
<trkpt lat="46.14813566" lon="7.54822969"><ele>2791.3251953928</ele><time>1989-12-31T00:00:00Z</time></trkpt>
<trkpt lat="46.14770651" lon="7.54784346"><ele>2785.557617088</ele><time>1989-12-31T00:00:00Z</time></trkpt>
<trkpt lat="46.14781380" lon="7.54893780"><ele>2778.3476562984</ele><time>1989-12-31T00:00:00Z</time></trkpt>
<trkpt lat="46.14755630" lon="7.55091190"><ele>2767.2919921512</ele><time>1989-12-31T00:00:00Z</time></trkpt>
<trkpt lat="46.14727736" lon="7.55028963"><ele>2761.5244141512</ele><time>1989-12-31T00:00:00Z</time></trkpt>
<trkpt lat="46.14723444" lon="7.55151272"><ele>2748.0659180304</ele><time>1989-12-31T00:00:00Z</time></trkpt>
<trkpt lat="46.14704132" lon="7.55157709"><ele>2742.2983397256</ele><time>1989-12-31T00:00:00Z</time></trkpt>
<trkpt lat="46.14665508" lon="7.55086899"><ele>2733.1655274096</ele><time>1989-12-31T00:00:00Z</time></trkpt>
<trkpt lat="46.14644051" lon="7.55187750"><ele>2724.0332030784</ele><time>1989-12-31T00:00:00Z</time></trkpt>
<trkpt lat="46.14609718" lon="7.55200624"><ele>2717.784668052</ele><time>1989-12-31T00:00:00Z</time></trkpt>
<trkpt lat="46.14603281" lon="7.55249977"><ele>2712.4970701944</ele><time>1989-12-31T00:00:00Z</time></trkpt>
<trkpt lat="46.14543200" lon="7.55292892"><ele>2705.2871094048</ele><time>1989-12-31T00:00:00Z</time></trkpt>
<trkpt lat="46.14536762" lon="7.55406618"><ele>2701.4418946416</ele><time>1989-12-31T00:00:00Z</time></trkpt>
<trkpt lat="46.14455223" lon="7.55310059"><ele>2690.8676758104</ele><time>1989-12-31T00:00:00Z</time></trkpt>
<trkpt lat="46.14493847" lon="7.55466700"><ele>2674.0439453736</ele><time>1989-12-31T00:00:00Z</time></trkpt>
<trkpt lat="46.14485264" lon="7.55516052"><ele>2670.1992189</ele><time>1989-12-31T00:00:00Z</time></trkpt>
<trkpt lat="46.14433765" lon="7.55481720"><ele>2661.5473633056</ele><time>1989-12-31T00:00:00Z</time></trkpt>
<trkpt lat="46.14403725" lon="7.55511761"><ele>2657.7021485424</ele><time>1989-12-31T00:00:00Z</time></trkpt>
<trkpt lat="46.14384413" lon="7.55762815"><ele>2632.7075195376</ele><time>1989-12-31T00:00:00Z</time></trkpt>
<trkpt lat="46.14298582" lon="7.55573988"><ele>2626.9399415376</ele><time>1989-12-31T00:00:00Z</time></trkpt>
<trkpt lat="46.14285707" lon="7.55713463"><ele>2616.8461914432</ele><time>1989-12-31T00:00:00Z</time></trkpt>
<trkpt lat="46.14234209" lon="7.55696297"><ele>2601.464843796</ele><time>1989-12-31T00:00:00Z</time></trkpt>
<trkpt lat="46.14169836" lon="7.55870104"><ele>2582.7189942672</ele><time>1989-12-31T00:00:00Z</time></trkpt>
<trkpt lat="46.14124775" lon="7.55840063"><ele>2572.144775436</ele><time>1989-12-31T00:00:00Z</time></trkpt>
<trkpt lat="46.14034653" lon="7.55859375"><ele>2565.89599596</ele><time>1989-12-31T00:00:00Z</time></trkpt>
<trkpt lat="46.13931656" lon="7.55951643"><ele>2559.6474609336</ele><time>1989-12-31T00:00:00Z</time></trkpt>
<trkpt lat="46.13899469" lon="7.56061077"><ele>2551.4763182208</ele><time>1989-12-31T00:00:00Z</time></trkpt>
<trkpt lat="46.13800764" lon="7.56071806"><ele>2541.8632813128</ele><time>1989-12-31T00:00:00Z</time></trkpt>
<trkpt lat="46.13740683" lon="7.56033182"><ele>2543.7858886944</ele><time>1989-12-31T00:00:00Z</time></trkpt>
<trkpt lat="46.13667727" lon="7.56035328"><ele>2543.3051758128</ele><time>1989-12-31T00:00:00Z</time></trkpt>
<trkpt lat="46.13530397" lon="7.56103992"><ele>2531.7692870736</ele><time>1989-12-31T00:00:00Z</time></trkpt>
<trkpt lat="46.13493919" lon="7.56166220"><ele>2530.3273925736</ele><time>1989-12-31T00:00:00Z</time></trkpt>
<trkpt lat="46.13287926" lon="7.56046057"><ele>2521.6752928344</ele><time>1989-12-31T00:00:00Z</time></trkpt>
<trkpt lat="46.13238573" lon="7.56112576"><ele>2514.9462890712</ele><time>1989-12-31T00:00:00Z</time></trkpt>
<trkpt lat="46.13189220" lon="7.56084681"><ele>2506.294189332</ele><time>1989-12-31T00:00:00Z</time></trkpt>
<trkpt lat="46.13144159" lon="7.55930185"><ele>2496.681152424</ele><time>1989-12-31T00:00:00Z</time></trkpt>
<trkpt lat="46.13129139" lon="7.55773544"><ele>2487.548583948</ele><time>1989-12-31T00:00:00Z</time></trkpt>
<trkpt lat="46.13019705" lon="7.55870104"><ele>2472.1674804456</ele><time>1989-12-31T00:00:00Z</time></trkpt>
<trkpt lat="46.13013268" lon="7.55988121"><ele>2463.0351561144</ele><time>1989-12-31T00:00:00Z</time></trkpt>
<trkpt lat="46.13047600" lon="7.56056786"><ele>2454.38305668</ele><time>1989-12-31T00:00:00Z</time></trkpt>
<trkpt lat="46.12944603" lon="7.56018162"><ele>2441.8859863224</ele><time>1989-12-31T00:00:00Z</time></trkpt>
<trkpt lat="46.12908125" lon="7.56046057"><ele>2439.0019531776</ele><time>1989-12-31T00:00:00Z</time></trkpt>
<trkpt lat="46.13039017" lon="7.56269217"><ele>2411.6044921992</ele><time>1989-12-31T00:00:00Z</time></trkpt>
<trkpt lat="46.13109827" lon="7.56342173"><ele>2400.0688476048</ele><time>1989-12-31T00:00:00Z</time></trkpt>
<trkpt lat="46.13549709" lon="7.56533146"><ele>2342.8701170952</ele><time>1989-12-31T00:00:00Z</time></trkpt>
<trkpt lat="46.13435984" lon="7.56558895"><ele>2323.6437988296</ele><time>1989-12-31T00:00:00Z</time></trkpt>
<trkpt lat="46.13725662" lon="7.56724119"><ele>2288.0751954432</ele><time>1989-12-31T00:00:00Z</time></trkpt>
<trkpt lat="46.13693476" lon="7.56745577"><ele>2280.3845214672</ele><time>1989-12-31T00:00:00Z</time></trkpt>
<trkpt lat="46.13815784" lon="7.56728411"><ele>2266.9260253464</ele><time>1989-12-31T00:00:00Z</time></trkpt>
<trkpt lat="46.13807201" lon="7.56758451"><ele>2259.23559582</ele><time>1989-12-31T00:00:00Z</time></trkpt>
<trkpt lat="46.13854408" lon="7.56702662"><ele>2258.7548829384</ele><time>1989-12-31T00:00:00Z</time></trkpt>
<trkpt lat="46.14043236" lon="7.56741285"><ele>2234.7219238416</ele><time>1989-12-31T00:00:00Z</time></trkpt>
<trkpt lat="46.13972425" lon="7.56788492"><ele>2217.4179688128</ele><time>1989-12-31T00:00:00Z</time></trkpt>
<trkpt lat="46.14045382" lon="7.56807804"><ele>2197.230468624</ele><time>1989-12-31T00:00:00Z</time></trkpt>
<trkpt lat="46.13961697" lon="7.56850719"><ele>2186.1752930712</ele><time>1989-12-31T00:00:00Z</time></trkpt>
<trkpt lat="46.14036798" lon="7.56874323"><ele>2171.2746583056</ele><time>1989-12-31T00:00:00Z</time></trkpt>
<trkpt lat="46.13918781" lon="7.56900072"><ele>2159.2585449744</ele><time>1989-12-31T00:00:00Z</time></trkpt>
<trkpt lat="46.13890886" lon="7.56936550"><ele>2156.3745118296</ele><time>1989-12-31T00:00:00Z</time></trkpt>
<trkpt lat="46.13918781" lon="7.56945133"><ele>2153.0097654984</ele><time>1989-12-31T00:00:00Z</time></trkpt>
<trkpt lat="46.13766432" lon="7.57022381"><ele>2139.070556496</ele><time>1989-12-31T00:00:00Z</time></trkpt>
<trkpt lat="46.13832951" lon="7.57118940"><ele>2137.628661996</ele><time>1989-12-31T00:00:00Z</time></trkpt>
<trkpt lat="46.13871574" lon="7.57127523"><ele>2131.8608398512</ele><time>1989-12-31T00:00:00Z</time></trkpt>
<trkpt lat="46.13927364" lon="7.57052422"><ele>2123.6894529936</ele><time>1989-12-31T00:00:00Z</time></trkpt>
<trkpt lat="46.14006758" lon="7.57015944"><ele>2118.883056612</ele><time>1989-12-31T00:00:00Z</time></trkpt>
<trkpt lat="46.14073277" lon="7.57050276"><ele>2101.579345728</ele><time>1989-12-31T00:00:00Z</time></trkpt>
<trkpt lat="46.14120483" lon="7.57022381"><ele>2099.6567383464</ele><time>1989-12-31T00:00:00Z</time></trkpt>
<trkpt lat="46.14238501" lon="7.57033110"><ele>2090.0434569888</ele><time>1989-12-31T00:00:00Z</time></trkpt>
<trkpt lat="46.14292145" lon="7.57093191"><ele>2084.7563477256</ele><time>1989-12-31T00:00:00Z</time></trkpt>
<trkpt lat="46.14519596" lon="7.57099628"><ele>2079.4689940128</ele><time>1989-12-31T00:00:00Z</time></trkpt>
<trkpt lat="46.14674091" lon="7.57065296"><ele>2071.29760746</ele><time>1989-12-31T00:00:00Z</time></trkpt>
<trkpt lat="46.14809275" lon="7.56968737"><ele>2057.3586426024</ele><time>1989-12-31T00:00:00Z</time></trkpt>
<trkpt lat="46.14914417" lon="7.56953716"><ele>2024.673828216</ele><time>1989-12-31T00:00:00Z</time></trkpt>
<trkpt lat="46.15008831" lon="7.56850719"><ele>2003.0441893824</ele><time>1989-12-31T00:00:00Z</time></trkpt>
<trkpt lat="46.15064621" lon="7.56850719"><ele>2002.5634765008</ele><time>1989-12-31T00:00:00Z</time></trkpt>
<trkpt lat="46.15086079" lon="7.56820679"><ele>1999.1989746192</ele><time>1989-12-31T00:00:00Z</time></trkpt>
<trkpt lat="46.15328550" lon="7.56837845"><ele>1987.1823729984</ele><time>1989-12-31T00:00:00Z</time></trkpt>
<trkpt lat="46.15562439" lon="7.56631851"><ele>1970.8400878776</ele><time>1989-12-31T00:00:00Z</time></trkpt>
<trkpt lat="46.15628958" lon="7.56539583"><ele>1962.66870102</ele><time>1989-12-31T00:00:00Z</time></trkpt>
<trkpt lat="46.15680456" lon="7.56380796"><ele>1954.497558612</ele><time>1989-12-31T00:00:00Z</time></trkpt>
<trkpt lat="46.15674019" lon="7.56453753"><ele>1948.2490235856</ele><time>1989-12-31T00:00:00Z</time></trkpt>
<trkpt lat="46.15955114" lon="7.56219864"><ele>1886.2441405344</ele><time>1989-12-31T00:00:00Z</time></trkpt>
<trkpt lat="46.15929365" lon="7.56299257"><ele>1877.5920411</ele><time>1989-12-31T00:00:00Z</time></trkpt>
<trkpt lat="46.15978718" lon="7.56282091"><ele>1862.6916504792</ele><time>1989-12-31T00:00:00Z</time></trkpt>
<trkpt lat="46.15959406" lon="7.56335735"><ele>1856.443115148</ele><time>1989-12-31T00:00:00Z</time></trkpt>
<trkpt lat="46.16002321" lon="7.56320715"><ele>1842.9846190272</ele><time>1989-12-31T00:00:00Z</time></trkpt>
<trkpt lat="46.15978718" lon="7.56395817"><ele>1835.7746582376</ele><time>1989-12-31T00:00:00Z</time></trkpt>
<trkpt lat="46.16036654" lon="7.56378651"><ele>1826.1616210248</ele><time>1989-12-31T00:00:00Z</time></trkpt>
<trkpt lat="46.15976572" lon="7.56582499"><ele>1812.703124904</ele><time>1989-12-31T00:00:00Z</time></trkpt>
<trkpt lat="46.16298437" lon="7.56664038"><ele>1765.1179198968</ele><time>1989-12-31T00:00:00Z</time></trkpt>
<trkpt lat="46.16538763" lon="7.56651163"><ele>1742.046386868</ele><time>1989-12-31T00:00:00Z</time></trkpt>
<trkpt lat="46.16723299" lon="7.56758451"><ele>1668.0246580512</ele><time>1989-12-31T00:00:00Z</time></trkpt>
<trkpt lat="46.16940022" lon="7.56951571"><ele>1650.2404784304</ele><time>1989-12-31T00:00:00Z</time></trkpt>
<trkpt lat="46.17023706" lon="7.56960154"><ele>1633.4172362832</ele><time>1989-12-31T00:00:00Z</time></trkpt>
<trkpt lat="46.17139578" lon="7.57127523"><ele>1610.8261719912</ele><time>1989-12-31T00:00:00Z</time></trkpt>
<trkpt lat="46.17253304" lon="7.57213354"><ele>1596.8872071336</ele><time>1989-12-31T00:00:00Z</time></trkpt>
<trkpt lat="46.17332697" lon="7.57204771"><ele>1594.003173684</ele><time>1989-12-31T00:00:00Z</time></trkpt>
<trkpt lat="46.17397070" lon="7.57277727"><ele>1590.1579589208</ele><time>1989-12-31T00:00:00Z</time></trkpt>
<trkpt lat="46.17872240" lon="7.40437151"><ele>38.1</ele><time>1989-12-31T00:00:00Z</time></trkpt>
<trkpt lat="46.17944106" lon="7.40465691"><ele>38.1</ele><time>1989-12-31T00:00:00Z</time></trkpt>
<trkpt lat="46.17974566" lon="7.40487459"><ele>1255.619140776</ele><time>1989-12-31T00:00:00Z</time></trkpt>
<trkpt lat="46.18164064" lon="7.40460855"><ele>1268.5969237104</ele><time>1989-12-31T00:00:00Z</time></trkpt>
<trkpt lat="46.18158524" lon="7.40430404"><ele>1271.0002442784</ele><time>1989-12-31T00:00:00Z</time></trkpt>
<trkpt lat="46.18293263" lon="7.40353810"><ele>1291.1877441624</ele><time>1989-12-31T00:00:00Z</time></trkpt>
<trkpt lat="46.18289868" lon="7.40338018"><ele>1294.072021452</ele><time>1989-12-31T00:00:00Z</time></trkpt>
<trkpt lat="46.18228253" lon="7.40320886"><ele>1300.3205567832</ele><time>1989-12-31T00:00:00Z</time></trkpt>
<trkpt lat="46.18118517" lon="7.40320609"><ele>1315.220947404</ele><time>1989-12-31T00:00:00Z</time></trkpt>
<trkpt lat="46.17977374" lon="7.40288758"><ele>1333.0051270248</ele><time>1989-12-31T00:00:00Z</time></trkpt>
<trkpt lat="46.17911367" lon="7.40218157"><ele>1345.9831544088</ele><time>1989-12-31T00:00:00Z</time></trkpt>
<trkpt lat="46.17798856" lon="7.40142234"><ele>1362.3254395296</ele><time>1989-12-31T00:00:00Z</time></trkpt>
<trkpt lat="46.17752085" lon="7.40062539"><ele>1371.9384764376</ele><time>1989-12-31T00:00:00Z</time></trkpt>
<trkpt lat="46.17674695" lon="7.40012038"><ele>1386.3583983216</ele><time>1989-12-31T00:00:00Z</time></trkpt>
<trkpt lat="46.17630539" lon="7.39951554"><ele>1392.126464916</ele><time>1989-12-31T00:00:00Z</time></trkpt>
<trkpt lat="46.17584875" lon="7.39851734"><ele>1405.5849610368</ele><time>1989-12-31T00:00:00Z</time></trkpt>
<trkpt lat="46.17548196" lon="7.39638817"><ele>1425.7724609208</ele><time>1989-12-31T00:00:00Z</time></trkpt>
<trkpt lat="46.17504870" lon="7.39566565"><ele>1432.9821778704</ele><time>1989-12-31T00:00:00Z</time></trkpt>
<trkpt lat="46.17446255" lon="7.39523984"><ele>1444.037597568</ele><time>1989-12-31T00:00:00Z</time></trkpt>
<trkpt lat="46.17463807" lon="7.39519592"><ele>1445.9602049496</ele><time>1989-12-31T00:00:00Z</time></trkpt>
<trkpt lat="46.17517828" lon="7.39525552"><ele>1450.766601636</ele><time>1989-12-31T00:00:00Z</time></trkpt>
<trkpt lat="46.17667638" lon="7.39608583"><ele>1472.3964843096</ele><time>1989-12-31T00:00:00Z</time></trkpt>
<trkpt lat="46.17784968" lon="7.39698378"><ele>1492.1035157616</ele><time>1989-12-31T00:00:00Z</time></trkpt>
<trkpt lat="46.17994155" lon="7.39668924"><ele>1519.0205076984</ele><time>1989-12-31T00:00:00Z</time></trkpt>
<trkpt lat="46.18064336" lon="7.39636243"><ele>1529.5947265296</ele><time>1989-12-31T00:00:00Z</time></trkpt>
<trkpt lat="46.18176813" lon="7.39627903"><ele>1543.533935532</ele><time>1989-12-31T00:00:00Z</time></trkpt>
<trkpt lat="46.18315173" lon="7.39492133"><ele>1561.7990721792</ele><time>1989-12-31T00:00:00Z</time></trkpt>
<trkpt lat="46.18363872" lon="7.39474204"><ele>1570.4509277736</ele><time>1989-12-31T00:00:00Z</time></trkpt>
<trkpt lat="46.18361483" lon="7.39461288"><ele>1571.8928222736</ele><time>1989-12-31T00:00:00Z</time></trkpt>
<trkpt lat="46.18253985" lon="7.39478186"><ele>1582.4675293944</ele><time>1989-12-31T00:00:00Z</time></trkpt>
<trkpt lat="46.18191205" lon="7.39435245"><ele>1591.5998534208</ele><time>1989-12-31T00:00:00Z</time></trkpt>
<trkpt lat="46.18194248" lon="7.39416378"><ele>1592.561279184</ele><time>1989-12-31T00:00:00Z</time></trkpt>
<trkpt lat="46.18081545" lon="7.39317128"><ele>1608.9035643048</ele><time>1989-12-31T00:00:00Z</time></trkpt>
<trkpt lat="46.18005110" lon="7.39303750"><ele>1618.0361327808</ele><time>1989-12-31T00:00:00Z</time></trkpt>
<trkpt lat="46.17964625" lon="7.39275595"><ele>1621.881347544</ele><time>1989-12-31T00:00:00Z</time></trkpt>
<trkpt lat="46.17865476" lon="7.39187032"><ele>1639.1850587328</ele><time>1989-12-31T00:00:00Z</time></trkpt>
<trkpt lat="46.17610088" lon="7.39090540"><ele>1671.8698731192</ele><time>1989-12-31T00:00:00Z</time></trkpt>
<trkpt lat="46.17620490" lon="7.39078780"><ele>1674.753906264</ele><time>1989-12-31T00:00:00Z</time></trkpt>
<trkpt lat="46.17797616" lon="7.39034213"><ele>1691.0961913848</ele><time>1989-12-31T00:00:00Z</time></trkpt>
<trkpt lat="46.17882986" lon="7.39026980"><ele>1696.8642576744</ele><time>1989-12-31T00:00:00Z</time></trkpt>
<trkpt lat="46.17967743" lon="7.39054657"><ele>1700.2290040056</ele><time>1989-12-31T00:00:00Z</time></trkpt>
<trkpt lat="46.18028454" lon="7.39032369"><ele>1704.5546875056</ele><time>1989-12-31T00:00:00Z</time></trkpt>
<trkpt lat="46.18069977" lon="7.38988465"><ele>1705.5161132688</ele><time>1989-12-31T00:00:00Z</time></trkpt>
<trkpt lat="46.18175900" lon="7.38951542"><ele>1713.6872559816</ele><time>1989-12-31T00:00:00Z</time></trkpt>
<trkpt lat="46.18154610" lon="7.38936639"><ele>1713.6872559816</ele><time>1989-12-31T00:00:00Z</time></trkpt>
<trkpt lat="46.18082936" lon="7.38946463"><ele>1719.935791008</ele><time>1989-12-31T00:00:00Z</time></trkpt>
<trkpt lat="46.17924795" lon="7.38889567"><ele>1735.797607392</ele><time>1989-12-31T00:00:00Z</time></trkpt>
<trkpt lat="46.17816400" lon="7.38896557"><ele>1745.4108887496</ele><time>1989-12-31T00:00:00Z</time></trkpt>
<trkpt lat="46.17751943" lon="7.38872769"><ele>1757.4274903704</ele><time>1989-12-31T00:00:00Z</time></trkpt>
<trkpt lat="46.17743880" lon="7.38851580"><ele>1761.2727051336</ele><time>1989-12-31T00:00:00Z</time></trkpt>
<trkpt lat="46.17761406" lon="7.38790903"><ele>1773.7697754912</ele><time>1989-12-31T00:00:00Z</time></trkpt>
<trkpt lat="46.17792553" lon="7.38756680"><ele>1783.8635252808</ele><time>1989-12-31T00:00:00Z</time></trkpt>
<trkpt lat="46.17901283" lon="7.38680723"><ele>1787.2280274672</ele><time>1989-12-31T00:00:00Z</time></trkpt>
<trkpt lat="46.18015990" lon="7.38677127"><ele>1794.4379882568</ele><time>1989-12-31T00:00:00Z</time></trkpt>
<trkpt lat="46.18187416" lon="7.38619376"><ele>1797.3220214016</ele><time>1989-12-31T00:00:00Z</time></trkpt>
<trkpt lat="46.18324226" lon="7.38631982"><ele>1793.4768066384</ele><time>1989-12-31T00:00:00Z</time></trkpt>
<trkpt lat="46.18499793" lon="7.38609108"><ele>1791.5541992568</ele><time>1989-12-31T00:00:00Z</time></trkpt>
<trkpt lat="46.18630886" lon="7.38634975"><ele>1783.3828123992</ele><time>1989-12-31T00:00:00Z</time></trkpt>
<trkpt lat="46.18797510" lon="7.38502633"><ele>1780.9797362808</ele><time>1989-12-31T00:00:00Z</time></trkpt>
<trkpt lat="46.18956003" lon="7.38411513"><ele>1784.3442381624</ele><time>1989-12-31T00:00:00Z</time></trkpt>
<trkpt lat="46.18979699" lon="7.38414380"><ele>1785.7861326624</ele><time>1989-12-31T00:00:00Z</time></trkpt>
<trkpt lat="46.19029337" lon="7.38365404"><ele>1783.8635252808</ele><time>1989-12-31T00:00:00Z</time></trkpt>
<trkpt lat="46.19158527" lon="7.38206014"><ele>1770.8857420416</ele><time>1989-12-31T00:00:00Z</time></trkpt>
<trkpt lat="46.19203412" lon="7.38103076"><ele>1773.7697754912</ele><time>1989-12-31T00:00:00Z</time></trkpt>
<trkpt lat="46.19187763" lon="7.38044302"><ele>1776.1730957544</ele><time>1989-12-31T00:00:00Z</time></trkpt>
<trkpt lat="46.19168912" lon="7.38027672"><ele>1774.7312012544</ele><time>1989-12-31T00:00:00Z</time></trkpt>
<trkpt lat="46.19148754" lon="7.37957407"><ele>1774.2504883728</ele><time>1989-12-31T00:00:00Z</time></trkpt>
<trkpt lat="46.19136005" lon="7.37776894"><ele>1786.7473145856</ele><time>1989-12-31T00:00:00Z</time></trkpt>
<trkpt lat="46.19072403" lon="7.37589357"><ele>1783.3828123992</ele><time>1989-12-31T00:00:00Z</time></trkpt>
<trkpt lat="46.19085940" lon="7.37461735"><ele>1774.7312012544</ele><time>1989-12-31T00:00:00Z</time></trkpt>
<trkpt lat="46.19112904" lon="7.37387898"><ele>1768.4824217784</ele><time>1989-12-31T00:00:00Z</time></trkpt>
<trkpt lat="46.19114597" lon="7.37026789"><ele>1750.217529276</ele><time>1989-12-31T00:00:00Z</time></trkpt>
<trkpt lat="46.19137497" lon="7.36837593"><ele>1739.6428221552</ele><time>1989-12-31T00:00:00Z</time></trkpt>
<trkpt lat="46.19164009" lon="7.36766648"><ele>1733.8750000104</ele><time>1989-12-31T00:00:00Z</time></trkpt>
<trkpt lat="46.19165232" lon="7.36719324"><ele>1731.9523926288</ele><time>1989-12-31T00:00:00Z</time></trkpt>
<trkpt lat="46.19132258" lon="7.36557679"><ele>1722.3391112712</ele><time>1989-12-31T00:00:00Z</time></trkpt>
<trkpt lat="46.19143750" lon="7.36505829"><ele>1720.4165038896</ele><time>1989-12-31T00:00:00Z</time></trkpt>
<trkpt lat="46.19184217" lon="7.36419663"><ele>1712.7260743632</ele><time>1989-12-31T00:00:00Z</time></trkpt>
<trkpt lat="46.19185667" lon="7.36359967"><ele>1707.4387206504</ele><time>1989-12-31T00:00:00Z</time></trkpt>
<trkpt lat="46.19168216" lon="7.36235663"><ele>1699.748291124</ele><time>1989-12-31T00:00:00Z</time></trkpt>
<trkpt lat="46.19174880" lon="7.36158114"><ele>1693.4997557928</ele><time>1989-12-31T00:00:00Z</time></trkpt>
<trkpt lat="46.19158066" lon="7.36090103"><ele>1687.7316895032</ele><time>1989-12-31T00:00:00Z</time></trkpt>
<trkpt lat="46.19174863" lon="7.36002152"><ele>1680.041259672</ele><time>1989-12-31T00:00:00Z</time></trkpt>
<trkpt lat="46.19127078" lon="7.35795312"><ele>1665.1408690512</ele><time>1989-12-31T00:00:00Z</time></trkpt>
<trkpt lat="46.19154688" lon="7.35694880"><ele>1658.89208988</ele><time>1989-12-31T00:00:00Z</time></trkpt>
<trkpt lat="46.19170463" lon="7.35499028"><ele>1645.433837904</ele><time>1989-12-31T00:00:00Z</time></trkpt>
<trkpt lat="46.19162693" lon="7.35382520"><ele>1631.9753417832</ele><time>1989-12-31T00:00:00Z</time></trkpt>
<trkpt lat="46.19179289" lon="7.35370064"><ele>1627.6491699936</ele><time>1989-12-31T00:00:00Z</time></trkpt>
<trkpt lat="46.19220679" lon="7.35390399"><ele>1616.5942382808</ele><time>1989-12-31T00:00:00Z</time></trkpt>
<trkpt lat="46.19245665" lon="7.35493907"><ele>1611.7875977544</ele><time>1989-12-31T00:00:00Z</time></trkpt>
<trkpt lat="46.19234299" lon="7.35574298"><ele>1607.9423826864</ele><time>1989-12-31T00:00:00Z</time></trkpt>
<trkpt lat="46.19255246" lon="7.35645326"><ele>1605.0583495416</ele><time>1989-12-31T00:00:00Z</time></trkpt>
<trkpt lat="46.19233008" lon="7.35733428"><ele>1602.1743163968</ele><time>1989-12-31T00:00:00Z</time></trkpt>
<trkpt lat="46.19302176" lon="7.35879223"><ele>1595.9257813704</ele><time>1989-12-31T00:00:00Z</time></trkpt>
<trkpt lat="46.19301162" lon="7.35923563"><ele>1593.0417479208</ele><time>1989-12-31T00:00:00Z</time></trkpt>
<trkpt lat="46.19337564" lon="7.36045394"><ele>1588.7160644208</ele><time>1989-12-31T00:00:00Z</time></trkpt>
<trkpt lat="46.19386079" lon="7.36146706"><ele>1585.3513183944</ele><time>1989-12-31T00:00:00Z</time></trkpt>
<trkpt lat="46.19411903" lon="7.36303632"><ele>1579.1025389184</ele><time>1989-12-31T00:00:00Z</time></trkpt>
<trkpt lat="46.19468230" lon="7.36381257"><ele>1572.8542480368</ele><time>1989-12-31T00:00:00Z</time></trkpt>
<trkpt lat="46.19484139" lon="7.36432353"><ele>1569.4897461552</ele><time>1989-12-31T00:00:00Z</time></trkpt>
<trkpt lat="46.19502847" lon="7.36539365"><ele>1566.1250001288</ele><time>1989-12-31T00:00:00Z</time></trkpt>
<trkpt lat="46.19504792" lon="7.36702334"><ele>1559.8762206528</ele><time>1989-12-31T00:00:00Z</time></trkpt>
<trkpt lat="46.19531387" lon="7.36794225"><ele>1553.6279297712</ele><time>1989-12-31T00:00:00Z</time></trkpt>
<trkpt lat="46.19581478" lon="7.36874825"><ele>1547.8598631768</ele><time>1989-12-31T00:00:00Z</time></trkpt>
<trkpt lat="46.19622532" lon="7.36875186"><ele>1545.9372557952</ele><time>1989-12-31T00:00:00Z</time></trkpt>
<trkpt lat="46.19594302" lon="7.36824693"><ele>1541.6113281504</ele><time>1989-12-31T00:00:00Z</time></trkpt>
<trkpt lat="46.19565502" lon="7.36809832"><ele>1539.2080078872</ele><time>1989-12-31T00:00:00Z</time></trkpt>
<trkpt lat="46.19561428" lon="7.36759272"><ele>1534.4016112008</ele><time>1989-12-31T00:00:00Z</time></trkpt>
<trkpt lat="46.19600496" lon="7.36653577"><ele>1524.788330148</ele><time>1989-12-31T00:00:00Z</time></trkpt>
<trkpt lat="46.19594662" lon="7.36584979"><ele>1520.4624021984</ele><time>1989-12-31T00:00:00Z</time></trkpt>
<trkpt lat="46.19613547" lon="7.36474330"><ele>1513.7329101456</ele><time>1989-12-31T00:00:00Z</time></trkpt>
<trkpt lat="46.19605366" lon="7.36429394"><ele>1508.4458008824</ele><time>1989-12-31T00:00:00Z</time></trkpt>
<trkpt lat="46.19622448" lon="7.36196067"><ele>1493.06469738</ele><time>1989-12-31T00:00:00Z</time></trkpt>
<trkpt lat="46.19606908" lon="7.36153462"><ele>1489.219482312</ele><time>1989-12-31T00:00:00Z</time></trkpt>
<trkpt lat="46.19591494" lon="7.35949514"><ele>1477.2031251408</ele><time>1989-12-31T00:00:00Z</time></trkpt>
<trkpt lat="46.19632272" lon="7.35879575"><ele>1471.915771428</ele><time>1989-12-31T00:00:00Z</time></trkpt>
<trkpt lat="46.19632130" lon="7.35848319"><ele>1468.5512695464</ele><time>1989-12-31T00:00:00Z</time></trkpt>
<trkpt lat="46.19575082" lon="7.35822896"><ele>1463.7443848752</ele><time>1989-12-31T00:00:00Z</time></trkpt>
<trkpt lat="46.19578226" lon="7.35801984"><ele>1461.8220213336</ele><time>1989-12-31T00:00:00Z</time></trkpt>
<trkpt lat="46.19645063" lon="7.35712146"><ele>1453.6508789256</ele><time>1989-12-31T00:00:00Z</time></trkpt>
<trkpt lat="46.19634284" lon="7.35672634"><ele>1450.766601636</ele><time>1989-12-31T00:00:00Z</time></trkpt>
<trkpt lat="46.19591326" lon="7.35679968"><ele>1446.921386568</ele><time>1989-12-31T00:00:00Z</time></trkpt>
<trkpt lat="46.19642615" lon="7.35567349"><ele>1438.7504883048</ele><time>1989-12-31T00:00:00Z</time></trkpt>
<trkpt lat="46.19621954" lon="7.35425293"><ele>1429.1369628024</ele><time>1989-12-31T00:00:00Z</time></trkpt>
<trkpt lat="46.19631568" lon="7.35305674"><ele>1421.446533276</ele><time>1989-12-31T00:00:00Z</time></trkpt>
<trkpt lat="46.19596113" lon="7.35101089"><ele>1407.9882813</ele><time>1989-12-31T00:00:00Z</time></trkpt>
<trkpt lat="46.19559475" lon="7.34965646"><ele>1401.2587889424</ele><time>1989-12-31T00:00:00Z</time></trkpt>
<trkpt lat="46.19542192" lon="7.34776743"><ele>1388.281249848</ele><time>1989-12-31T00:00:00Z</time></trkpt>
<trkpt lat="46.19558729" lon="7.34572417"><ele>1374.3420411504</ele><time>1989-12-31T00:00:00Z</time></trkpt>
<trkpt lat="46.19574898" lon="7.34500433"><ele>1368.0932616744</ele><time>1989-12-31T00:00:00Z</time></trkpt>
<trkpt lat="46.19571939" lon="7.34392458"><ele>1364.2480469112</ele><time>1989-12-31T00:00:00Z</time></trkpt>
<trkpt lat="46.19477986" lon="7.34138520"><ele>1367.132080056</ele><time>1989-12-31T00:00:00Z</time></trkpt>
<trkpt lat="46.19372416" lon="7.33988073"><ele>1368.573974556</ele><time>1989-12-31T00:00:00Z</time></trkpt>
<trkpt lat="46.19355342" lon="7.33938527"><ele>1370.015869056</ele><time>1989-12-31T00:00:00Z</time></trkpt>
<trkpt lat="46.19319979" lon="7.33908067"><ele>1370.015869056</ele><time>1989-12-31T00:00:00Z</time></trkpt>
<trkpt lat="46.19279654" lon="7.33901219"><ele>1371.457763556</ele><time>1989-12-31T00:00:00Z</time></trkpt>
<trkpt lat="46.19202104" lon="7.33837953"><ele>1363.7673340296</ele><time>1989-12-31T00:00:00Z</time></trkpt>
<trkpt lat="46.19174327" lon="7.33790176"><ele>1354.6347655536</ele><time>1989-12-31T00:00:00Z</time></trkpt>
<trkpt lat="46.19023855" lon="7.33845505"><ele>1373.3808592272</ele><time>1989-12-31T00:00:00Z</time></trkpt>
<trkpt lat="46.18957462" lon="7.33827048"><ele>1374.822754032</ele><time>1989-12-31T00:00:00Z</time></trkpt>
<trkpt lat="46.18837349" lon="7.33867524"><ele>1375.3032227688</ele><time>1989-12-31T00:00:00Z</time></trkpt>
<trkpt lat="46.18765508" lon="7.33929877"><ele>1380.1098632952</ele><time>1989-12-31T00:00:00Z</time></trkpt>
<trkpt lat="46.18600954" lon="7.33976439"><ele>1402.7006834424</ele><time>1989-12-31T00:00:00Z</time></trkpt>
<trkpt lat="46.18571685" lon="7.34022573"><ele>1407.0268555368</ele><time>1989-12-31T00:00:00Z</time></trkpt>
<trkpt lat="46.18439779" lon="7.34130599"><ele>1412.3139648</ele><time>1989-12-31T00:00:00Z</time></trkpt>
<trkpt lat="46.18369102" lon="7.34268632"><ele>1423.8498535392</ele><time>1989-12-31T00:00:00Z</time></trkpt>
<trkpt lat="46.18294026" lon="7.34358620"><ele>1443.5568846864</ele><time>1989-12-31T00:00:00Z</time></trkpt>
<trkpt lat="46.18258713" lon="7.34466478"><ele>1446.4409178312</ele><time>1989-12-31T00:00:00Z</time></trkpt>
<trkpt lat="46.18165799" lon="7.34610689"><ele>1451.2473145176</ele><time>1989-12-31T00:00:00Z</time></trkpt>
<trkpt lat="46.18055234" lon="7.34721464"><ele>1455.5734863072</ele><time>1989-12-31T00:00:00Z</time></trkpt>
<trkpt lat="46.17981004" lon="7.34879379"><ele>1459.4187010704</ele><time>1989-12-31T00:00:00Z</time></trkpt>
<trkpt lat="46.17910252" lon="7.34895724"><ele>1463.7443848752</ele><time>1989-12-31T00:00:00Z</time></trkpt>
<trkpt lat="46.17833499" lon="7.34865725"><ele>1466.62841802</ele><time>1989-12-31T00:00:00Z</time></trkpt>
<trkpt lat="46.17709246" lon="7.34921498"><ele>1470.9545898096</ele><time>1989-12-31T00:00:00Z</time></trkpt>
<trkpt lat="46.17658585" lon="7.34897560"><ele>1471.4350585464</ele><time>1989-12-31T00:00:00Z</time></trkpt>
<trkpt lat="46.17577264" lon="7.34954816"><ele>1480.5676270224</ele><time>1989-12-31T00:00:00Z</time></trkpt>
<trkpt lat="46.17588035" lon="7.34921993"><ele>1480.0869141408</ele><time>1989-12-31T00:00:00Z</time></trkpt>
<trkpt lat="46.17641813" lon="7.34842943"><ele>1473.8383788096</ele><time>1989-12-31T00:00:00Z</time></trkpt>
<trkpt lat="46.17708248" lon="7.34464064"><ele>1441.1535644232</ele><time>1989-12-31T00:00:00Z</time></trkpt>
<trkpt lat="46.17742966" lon="7.34404477"><ele>1434.9050293968</ele><time>1989-12-31T00:00:00Z</time></trkpt>
<trkpt lat="46.17777558" lon="7.34293417"><ele>1422.8886719208</ele><time>1989-12-31T00:00:00Z</time></trkpt>
<trkpt lat="46.17780173" lon="7.34234350"><ele>1418.0817872496</ele><time>1989-12-31T00:00:00Z</time></trkpt>
<trkpt lat="46.17828436" lon="7.34126952"><ele>1408.9494629184</ele><time>1989-12-31T00:00:00Z</time></trkpt>
<trkpt lat="46.17818034" lon="7.34070945"><ele>1406.0654297736</ele><time>1989-12-31T00:00:00Z</time></trkpt>
<trkpt lat="46.17863422" lon="7.33452762"><ele>1363.7673340296</ele><time>1989-12-31T00:00:00Z</time></trkpt>
<trkpt lat="46.17854848" lon="7.33391516"><ele>1360.402832148</ele><time>1989-12-31T00:00:00Z</time></trkpt>
<trkpt lat="46.17824765" lon="7.33362892"><ele>1357.9997557248</ele><time>1989-12-31T00:00:00Z</time></trkpt>
<trkpt lat="46.17704652" lon="7.33268109"><ele>1345.0217286456</ele><time>1989-12-31T00:00:00Z</time></trkpt>
<trkpt lat="46.17634085" lon="7.33152799"><ele>1334.4472656696</ele><time>1989-12-31T00:00:00Z</time></trkpt>
<trkpt lat="46.17538154" lon="7.33111627"><ele>1327.7180174568</ele><time>1989-12-31T00:00:00Z</time></trkpt>
<trkpt lat="46.17454276" lon="7.33120118"><ele>1318.104736404</ele><time>1989-12-31T00:00:00Z</time></trkpt>
<trkpt lat="46.17397573" lon="7.33067379"><ele>1314.7402345224</ele><time>1989-12-31T00:00:00Z</time></trkpt>
<trkpt lat="46.17316805" lon="7.33154526"><ele>1308.4916991912</ele><time>1989-12-31T00:00:00Z</time></trkpt>
<trkpt lat="46.17256874" lon="7.32811589"><ele>1287.8232422808</ele><time>1989-12-31T00:00:00Z</time></trkpt>
<trkpt lat="46.17222953" lon="7.32756813"><ele>1282.0554198312</ele><time>1989-12-31T00:00:00Z</time></trkpt>
<trkpt lat="46.17215409" lon="7.32691216"><ele>1275.3259277784</ele><time>1989-12-31T00:00:00Z</time></trkpt>
<trkpt lat="46.17163642" lon="7.32619325"><ele>1268.5969237104</ele><time>1989-12-31T00:00:00Z</time></trkpt>
<trkpt lat="46.17021418" lon="7.32502984"><ele>1249.8513183264</ele><time>1989-12-31T00:00:00Z</time></trkpt>
<trkpt lat="46.17015115" lon="7.32479137"><ele>1247.4479980632</ele><time>1989-12-31T00:00:00Z</time></trkpt>
<trkpt lat="46.17020178" lon="7.32437395"><ele>1244.0834961816</ele><time>1989-12-31T00:00:00Z</time></trkpt>
<trkpt lat="46.16991185" lon="7.32303235"><ele>1234.470214824</ele><time>1989-12-31T00:00:00Z</time></trkpt>
<trkpt lat="46.16926267" lon="7.32131565"><ele>1220.05029294</ele><time>1989-12-31T00:00:00Z</time></trkpt>
<trkpt lat="46.16858340" lon="7.32025316"><ele>1229.6635742976</ele><time>1989-12-31T00:00:00Z</time></trkpt>
<trkpt lat="46.16793212" lon="7.31966408"><ele>1241.199218892</ele><time>1989-12-31T00:00:00Z</time></trkpt>
<trkpt lat="46.16733827" lon="7.32006012"><ele>1248.8898925632</ele><time>1989-12-31T00:00:00Z</time></trkpt>
<trkpt lat="46.16686394" lon="7.32005359"><ele>1254.657714708</ele><time>1989-12-31T00:00:00Z</time></trkpt>
<trkpt lat="46.16629782" lon="7.31967439"><ele>1260.4257813024</ele><time>1989-12-31T00:00:00Z</time></trkpt>
<trkpt lat="46.16609783" lon="7.31910593"><ele>1251.773925708</ele><time>1989-12-31T00:00:00Z</time></trkpt>
<trkpt lat="46.16623647" lon="7.31879873"><ele>1247.4479980632</ele><time>1989-12-31T00:00:00Z</time></trkpt>
<trkpt lat="46.16701028" lon="7.31907324"><ele>1238.7961424688</ele><time>1989-12-31T00:00:00Z</time></trkpt>
<trkpt lat="46.16785786" lon="7.31844770"><ele>1235.4313964424</ele><time>1989-12-31T00:00:00Z</time></trkpt>
<trkpt lat="46.16930743" lon="7.31837193"><ele>1230.6250000608</ele><time>1989-12-31T00:00:00Z</time></trkpt>
<trkpt lat="46.16998175" lon="7.31786474"><ele>1237.8347167056</ele><time>1989-12-31T00:00:00Z</time></trkpt>
<trkpt lat="46.17024528" lon="7.31791293"><ele>1242.1606446552</ele><time>1989-12-31T00:00:00Z</time></trkpt>
<trkpt lat="46.17071827" lon="7.31838844"><ele>1247.9287109448</ele><time>1989-12-31T00:00:00Z</time></trkpt>
<trkpt lat="46.17167599" lon="7.31845348"><ele>1249.8513183264</ele><time>1989-12-31T00:00:00Z</time></trkpt>
<trkpt lat="46.17242399" lon="7.31814318"><ele>1247.9287109448</ele><time>1989-12-31T00:00:00Z</time></trkpt>
<trkpt lat="46.17293520" lon="7.31815316"><ele>1248.4091796816</ele><time>1989-12-31T00:00:00Z</time></trkpt>
<trkpt lat="46.17364833" lon="7.31850126"><ele>1244.5639649184</ele><time>1989-12-31T00:00:00Z</time></trkpt>
<trkpt lat="46.17447588" lon="7.31771378"><ele>1249.8513183264</ele><time>1989-12-31T00:00:00Z</time></trkpt>
<trkpt lat="46.17531809" lon="7.31785652"><ele>1258.9836426576</ele><time>1989-12-31T00:00:00Z</time></trkpt>
<trkpt lat="46.17759244" lon="7.31721556"><ele>1278.6909179496</ele><time>1989-12-31T00:00:00Z</time></trkpt>
<trkpt lat="46.17934610" lon="7.31597504"><ele>1283.4973143312</ele><time>1989-12-31T00:00:00Z</time></trkpt>
<trkpt lat="46.17995580" lon="7.31578385"><ele>1290.7070312808</ele><time>1989-12-31T00:00:00Z</time></trkpt>
<trkpt lat="46.18029384" lon="7.31542627"><ele>1291.1877441624</ele><time>1989-12-31T00:00:00Z</time></trkpt>
<trkpt lat="46.18044069" lon="7.31347849"><ele>1293.1105956888</ele><time>1989-12-31T00:00:00Z</time></trkpt>
<trkpt lat="46.18067094" lon="7.31257349"><ele>1297.9172362152</ele><time>1989-12-31T00:00:00Z</time></trkpt>
<trkpt lat="46.18148298" lon="7.31143850"><ele>1301.2817384016</ele><time>1989-12-31T00:00:00Z</time></trkpt>
<trkpt lat="46.18155448" lon="7.30924554"><ele>1293.1105956888</ele><time>1989-12-31T00:00:00Z</time></trkpt>
<trkpt lat="46.18143747" lon="7.30824600"><ele>1295.513915952</ele><time>1989-12-31T00:00:00Z</time></trkpt>
<trkpt lat="46.18073699" lon="7.30597132"><ele>1341.6572264592</ele><time>1989-12-31T00:00:00Z</time></trkpt>
<trkpt lat="46.18037875" lon="7.30687288"><ele>1368.573974556</ele><time>1989-12-31T00:00:00Z</time></trkpt>
<trkpt lat="46.18013936" lon="7.30685083"><ele>1370.9772948192</ele><time>1989-12-31T00:00:00Z</time></trkpt>
<trkpt lat="46.17959437" lon="7.30485829"><ele>1405.1042481552</ele><time>1989-12-31T00:00:00Z</time></trkpt>
<trkpt lat="46.17930746" lon="7.30577309"><ele>1425.7724609208</ele><time>1989-12-31T00:00:00Z</time></trkpt>
<trkpt lat="46.17920939" lon="7.30559723"><ele>1428.6564940656</ele><time>1989-12-31T00:00:00Z</time></trkpt>
<trkpt lat="46.17912842" lon="7.30491629"><ele>1439.7116699232</ele><time>1989-12-31T00:00:00Z</time></trkpt>
<trkpt lat="46.17923177" lon="7.30431388"><ele>1443.0761718048</ele><time>1989-12-31T00:00:00Z</time></trkpt>
<trkpt lat="46.17870664" lon="7.29939278"><ele>1424.3305664208</ele><time>1989-12-31T00:00:00Z</time></trkpt>
<trkpt lat="46.17877973" lon="7.29817347"><ele>1415.1979979448</ele><time>1989-12-31T00:00:00Z</time></trkpt>
<trkpt lat="46.17922037" lon="7.29607807"><ele>1395.4909667976</ele><time>1989-12-31T00:00:00Z</time></trkpt>
<trkpt lat="46.17979746" lon="7.29495792"><ele>1383.9550780584</ele><time>1989-12-31T00:00:00Z</time></trkpt>
<trkpt lat="46.18018337" lon="7.29490084"><ele>1377.706543032</ele><time>1989-12-31T00:00:00Z</time></trkpt>
<trkpt lat="46.18121895" lon="7.29331490"><ele>1381.5517577952</ele><time>1989-12-31T00:00:00Z</time></trkpt>
<trkpt lat="46.18117117" lon="7.29275716"><ele>1385.3969725584</ele><time>1989-12-31T00:00:00Z</time></trkpt>
<trkpt lat="46.18033910" lon="7.29139217"><ele>1400.297607324</ele><time>1989-12-31T00:00:00Z</time></trkpt>
<trkpt lat="46.18002277" lon="7.29022751"><ele>1411.3527831816</ele><time>1989-12-31T00:00:00Z</time></trkpt>
<trkpt lat="46.17993107" lon="7.28893275"><ele>1423.8498535392</ele><time>1989-12-31T00:00:00Z</time></trkpt>
<trkpt lat="46.17961558" lon="7.28848038"><ele>1429.617675684</ele><time>1989-12-31T00:00:00Z</time></trkpt>
<trkpt lat="46.17880303" lon="7.28628114"><ele>1493.5454102616</ele><time>1989-12-31T00:00:00Z</time></trkpt>
<trkpt lat="46.17772085" lon="7.28427694"><ele>1481.5288086408</ele><time>1989-12-31T00:00:00Z</time></trkpt>
<trkpt lat="46.17680169" lon="7.28312694"><ele>1497.3906250248</ele><time>1989-12-31T00:00:00Z</time></trkpt>
<trkpt lat="46.17663455" lon="7.28266720"><ele>1501.2360839328</ele><time>1989-12-31T00:00:00Z</time></trkpt>
<trkpt lat="46.17589359" lon="7.28016059"><ele>1516.1364745536</ele><time>1989-12-31T00:00:00Z</time></trkpt>
<trkpt lat="46.17521164" lon="7.27886508"><ele>1540.1694336504</ele><time>1989-12-31T00:00:00Z</time></trkpt>
<trkpt lat="46.17425334" lon="7.27593678"><ele>1552.666504008</ele><time>1989-12-31T00:00:00Z</time></trkpt>
<trkpt lat="46.17350265" lon="7.27421078"><ele>1561.3183592976</ele><time>1989-12-31T00:00:00Z</time></trkpt>
<trkpt lat="46.17271107" lon="7.27298954"><ele>1574.7768554184</ele><time>1989-12-31T00:00:00Z</time></trkpt>
<trkpt lat="46.17253873" lon="7.27195278"><ele>1570.9316406552</ele><time>1989-12-31T00:00:00Z</time></trkpt>
<trkpt lat="46.17263915" lon="7.27086648"><ele>1564.683105324</ele><time>1989-12-31T00:00:00Z</time></trkpt>
<trkpt lat="46.17250043" lon="7.27021764"><ele>1559.8762206528</ele><time>1989-12-31T00:00:00Z</time></trkpt>
<trkpt lat="46.17280687" lon="7.26932664"><ele>1554.5891113896</ele><time>1989-12-31T00:00:00Z</time></trkpt>
<trkpt lat="46.17258316" lon="7.26675156"><ele>1542.5727539136</ele><time>1989-12-31T00:00:00Z</time></trkpt>
<trkpt lat="46.17265088" lon="7.26600473"><ele>1536.804687624</ele><time>1989-12-31T00:00:00Z</time></trkpt>
<trkpt lat="46.17186156" lon="7.26363575"><ele>1523.346435648</ele><time>1989-12-31T00:00:00Z</time></trkpt>
<trkpt lat="46.17087065" lon="7.26142603"><ele>1513.7329101456</ele><time>1989-12-31T00:00:00Z</time></trkpt>
<trkpt lat="46.17049623" lon="7.25941664"><ele>1509.8876953824</ele><time>1989-12-31T00:00:00Z</time></trkpt>
<trkpt lat="46.16971035" lon="7.25751587"><ele>1524.788330148</ele><time>1989-12-31T00:00:00Z</time></trkpt>
<trkpt lat="46.16873017" lon="7.25563983"><ele>1539.2080078872</ele><time>1989-12-31T00:00:00Z</time></trkpt>
<trkpt lat="46.16775485" lon="7.25439747"><ele>1545.4565429136</ele><time>1989-12-31T00:00:00Z</time></trkpt>
<trkpt lat="46.16672362" lon="7.25341192"><ele>1552.1857911264</ele><time>1989-12-31T00:00:00Z</time></trkpt>
<trkpt lat="46.16554907" lon="7.25279217"><ele>1555.0698242712</ele><time>1989-12-31T00:00:00Z</time></trkpt>
<trkpt lat="46.16477827" lon="7.25353874"><ele>1558.4343261528</ele><time>1989-12-31T00:00:00Z</time></trkpt>
<trkpt lat="46.16221189" lon="7.25436025"><ele>1564.683105324</ele><time>1989-12-31T00:00:00Z</time></trkpt>
<trkpt lat="46.15934763" lon="7.25700189"><ele>1567.086425892</ele><time>1989-12-31T00:00:00Z</time></trkpt>
<trkpt lat="46.15833686" lon="7.25839027"><ele>1568.528320392</ele><time>1989-12-31T00:00:00Z</time></trkpt>
<trkpt lat="46.15821993" lon="7.25928554"><ele>1569.4897461552</ele><time>1989-12-31T00:00:00Z</time></trkpt>
<trkpt lat="46.15833895" lon="7.26021199"><ele>1570.9316406552</ele><time>1989-12-31T00:00:00Z</time></trkpt>
<trkpt lat="46.15801575" lon="7.26090778"><ele>1569.4897461552</ele><time>1989-12-31T00:00:00Z</time></trkpt>
<trkpt lat="46.15783436" lon="7.26193875"><ele>1570.4509277736</ele><time>1989-12-31T00:00:00Z</time></trkpt>
<trkpt lat="46.15751216" lon="7.26251526"><ele>1571.412109392</ele><time>1989-12-31T00:00:00Z</time></trkpt>
<trkpt lat="46.15706507" lon="7.26263914"><ele>1572.8542480368</ele><time>1989-12-31T00:00:00Z</time></trkpt>
<trkpt lat="46.15645512" lon="7.26330944"><ele>1572.8542480368</ele><time>1989-12-31T00:00:00Z</time></trkpt>
<trkpt lat="46.15673617" lon="7.26458768"><ele>1572.8542480368</ele><time>1989-12-31T00:00:00Z</time></trkpt>
<trkpt lat="46.15684488" lon="7.26740560"><ele>1575.7380370368</ele><time>1989-12-31T00:00:00Z</time></trkpt>
<trkpt lat="46.15647457" lon="7.26745220"><ele>1577.1801756816</ele><time>1989-12-31T00:00:00Z</time></trkpt>
<trkpt lat="46.15540914" lon="7.26662407"><ele>1577.6606444184</ele><time>1989-12-31T00:00:00Z</time></trkpt>
<trkpt lat="46.15305299" lon="7.26641477"><ele>1579.5832521048</ele><time>1989-12-31T00:00:00Z</time></trkpt>
<trkpt lat="46.15255360" lon="7.26611948"><ele>1579.5832521048</ele><time>1989-12-31T00:00:00Z</time></trkpt>
<trkpt lat="46.15448990" lon="7.26615116"><ele>1559.395751916</ele><time>1989-12-31T00:00:00Z</time></trkpt>
<trkpt lat="46.15510806" lon="7.26571907"><ele>1552.666504008</ele><time>1989-12-31T00:00:00Z</time></trkpt>
<trkpt lat="46.15556496" lon="7.26564045"><ele>1546.8984374136</ele><time>1989-12-31T00:00:00Z</time></trkpt>
<trkpt lat="46.15487907" lon="7.26535798"><ele>1542.092041032</ele><time>1989-12-31T00:00:00Z</time></trkpt>
<trkpt lat="46.15381717" lon="7.26546016"><ele>1530.0754394112</ele><time>1989-12-31T00:00:00Z</time></trkpt>
<trkpt lat="46.15279038" lon="7.26484853"><ele>1519.9816893168</ele><time>1989-12-31T00:00:00Z</time></trkpt>
<trkpt lat="46.15235838" lon="7.26430764"><ele>1514.6943359088</ele><time>1989-12-31T00:00:00Z</time></trkpt>
<trkpt lat="46.15187852" lon="7.26437336"><ele>1510.368408264</ele><time>1989-12-31T00:00:00Z</time></trkpt>
<trkpt lat="46.15130989" lon="7.26507543"><ele>1501.2360839328</ele><time>1989-12-31T00:00:00Z</time></trkpt>
<trkpt lat="46.15100437" lon="7.26518523"><ele>1498.3518066432</ele><time>1989-12-31T00:00:00Z</time></trkpt>
<trkpt lat="46.15046307" lon="7.26514315"><ele>1492.5842286432</ele><time>1989-12-31T00:00:00Z</time></trkpt>
<trkpt lat="46.15110445" lon="7.26465097"><ele>1482.490234404</ele><time>1989-12-31T00:00:00Z</time></trkpt>
<trkpt lat="46.15050330" lon="7.26457570"><ele>1478.1643067592</ele><time>1989-12-31T00:00:00Z</time></trkpt>
<trkpt lat="46.14897050" lon="7.26474132"><ele>1463.7443848752</ele><time>1989-12-31T00:00:00Z</time></trkpt>
<trkpt lat="46.14888836" lon="7.26500996"><ele>1461.341308452</ele><time>1989-12-31T00:00:00Z</time></trkpt>
<trkpt lat="46.14811513" lon="7.26574497"><ele>1453.6508789256</ele><time>1989-12-31T00:00:00Z</time></trkpt>
<trkpt lat="46.14727216" lon="7.26548849"><ele>1444.9987791864</ele><time>1989-12-31T00:00:00Z</time></trkpt>
<trkpt lat="46.14700276" lon="7.26611939"><ele>1440.1923828048</ele><time>1989-12-31T00:00:00Z</time></trkpt>
<trkpt lat="46.14680185" lon="7.26631603"><ele>1437.30834966</ele><time>1989-12-31T00:00:00Z</time></trkpt>
<trkpt lat="46.14630338" lon="7.26629097"><ele>1432.0209959472</ele><time>1989-12-31T00:00:00Z</time></trkpt>
<trkpt lat="46.14610808" lon="7.26722823"><ele>1425.2917480392</ele><time>1989-12-31T00:00:00Z</time></trkpt>
<trkpt lat="46.14609928" lon="7.26603398"><ele>1415.1979979448</ele><time>1989-12-31T00:00:00Z</time></trkpt>
<trkpt lat="46.14650019" lon="7.26539025"><ele>1405.1042481552</ele><time>1989-12-31T00:00:00Z</time></trkpt>
<trkpt lat="46.14617522" lon="7.26558739"><ele>1400.7780760608</ele><time>1989-12-31T00:00:00Z</time></trkpt>
<trkpt lat="46.14619525" lon="7.26541573"><ele>1398.3747557976</ele><time>1989-12-31T00:00:00Z</time></trkpt>
<trkpt lat="46.14676706" lon="7.26456572"><ele>1388.281249848</ele><time>1989-12-31T00:00:00Z</time></trkpt>
<trkpt lat="46.14670303" lon="7.26445056"><ele>1387.31957994</ele><time>1989-12-31T00:00:00Z</time></trkpt>
<trkpt lat="46.14635317" lon="7.26469078"><ele>1382.0324706768</ele><time>1989-12-31T00:00:00Z</time></trkpt>
<trkpt lat="46.14624093" lon="7.26454795"><ele>1379.6291504136</ele><time>1989-12-31T00:00:00Z</time></trkpt>
<trkpt lat="46.14655576" lon="7.26426062"><ele>1376.264648532</ele><time>1989-12-31T00:00:00Z</time></trkpt>
<trkpt lat="46.14641813" lon="7.26426674"><ele>1373.8613282688</ele><time>1989-12-31T00:00:00Z</time></trkpt>
<trkpt lat="46.14594019" lon="7.26476932"><ele>1365.690185556</ele><time>1989-12-31T00:00:00Z</time></trkpt>
<trkpt lat="46.14587112" lon="7.26462767"><ele>1365.2094726744</ele><time>1989-12-31T00:00:00Z</time></trkpt>
<trkpt lat="46.14579175" lon="7.26539109"><ele>1370.4965819376</ele><time>1989-12-31T00:00:00Z</time></trkpt>
<trkpt lat="46.14558513" lon="7.26580398"><ele>1373.3808592272</ele><time>1989-12-31T00:00:00Z</time></trkpt>
<trkpt lat="46.14542412" lon="7.26583784"><ele>1374.822754032</ele><time>1989-12-31T00:00:00Z</time></trkpt>
<trkpt lat="46.14505464" lon="7.26552595"><ele>1373.8613282688</ele><time>1989-12-31T00:00:00Z</time></trkpt>
<trkpt lat="46.14497694" lon="7.26469874"><ele>1366.1706542928</ele><time>1989-12-31T00:00:00Z</time></trkpt>
<trkpt lat="46.14528934" lon="7.26400665"><ele>1360.402832148</ele><time>1989-12-31T00:00:00Z</time></trkpt>
<trkpt lat="46.14571430" lon="7.26373424"><ele>1355.5961913168</ele><time>1989-12-31T00:00:00Z</time></trkpt>
<trkpt lat="46.14615276" lon="7.26300979"><ele>1345.9831544088</ele><time>1989-12-31T00:00:00Z</time></trkpt>
<trkpt lat="46.14717694" lon="7.26238207"><ele>1328.67944322</ele><time>1989-12-31T00:00:00Z</time></trkpt>
<trkpt lat="46.14747760" lon="7.26189416"><ele>1330.6020509064</ele><time>1989-12-31T00:00:00Z</time></trkpt>
<trkpt lat="46.14804723" lon="7.26047544"><ele>1340.2153319592</ele><time>1989-12-31T00:00:00Z</time></trkpt>
<trkpt lat="46.14792846" lon="7.25947162"><ele>1347.4250489088</ele><time>1989-12-31T00:00:00Z</time></trkpt>
<trkpt lat="46.14755807" lon="7.25823839"><ele>1358.960937648</ele><time>1989-12-31T00:00:00Z</time></trkpt>
<trkpt lat="46.14727316" lon="7.25619363"><ele>1379.6291504136</ele><time>1989-12-31T00:00:00Z</time></trkpt>
<trkpt lat="46.14699145" lon="7.25267365"><ele>1420.4853516576</ele><time>1989-12-31T00:00:00Z</time></trkpt>
<trkpt lat="46.14522102" lon="7.25278010"><ele>1437.7890625416</ele><time>1989-12-31T00:00:00Z</time></trkpt>
<trkpt lat="46.14466614" lon="7.25214215"><ele>1441.6342773048</ele><time>1989-12-31T00:00:00Z</time></trkpt>
<trkpt lat="46.14369275" lon="7.25173688"><ele>1450.766601636</ele><time>1989-12-31T00:00:00Z</time></trkpt>
<trkpt lat="46.14280812" lon="7.25164628"><ele>1456.053955044</ele><time>1989-12-31T00:00:00Z</time></trkpt>
<trkpt lat="46.14193565" lon="7.25194937"><ele>1465.18652352</ele><time>1989-12-31T00:00:00Z</time></trkpt>
<trkpt lat="46.14116502" lon="7.25164485"><ele>1470.473876928</ele><time>1989-12-31T00:00:00Z</time></trkpt>
<trkpt lat="46.14040084" lon="7.25177569"><ele>1478.1643067592</ele><time>1989-12-31T00:00:00Z</time></trkpt>
<trkpt lat="46.13985417" lon="7.25147269"><ele>1480.0869141408</ele><time>1989-12-31T00:00:00Z</time></trkpt>
<trkpt lat="46.13814075" lon="7.25110598"><ele>1500.2749023144</ele><time>1989-12-31T00:00:00Z</time></trkpt>
<trkpt lat="46.13736894" lon="7.25049066"><ele>1510.368408264</ele><time>1989-12-31T00:00:00Z</time></trkpt>
<trkpt lat="46.13642572" lon="7.25027609"><ele>1516.1364745536</ele><time>1989-12-31T00:00:00Z</time></trkpt>
<trkpt lat="46.13756306" lon="7.24940663"><ele>1516.6171874352</ele><time>1989-12-31T00:00:00Z</time></trkpt>
<trkpt lat="46.13799658" lon="7.24867632"><ele>1517.5783690536</ele><time>1989-12-31T00:00:00Z</time></trkpt>
<trkpt lat="46.13949317" lon="7.24778038"><ele>1519.9816893168</ele><time>1989-12-31T00:00:00Z</time></trkpt>
<trkpt lat="46.14007680" lon="7.24677103"><ele>1515.655761672</ele><time>1989-12-31T00:00:00Z</time></trkpt>
<trkpt lat="46.14065959" lon="7.24667639"><ele>1512.2910156456</ele><time>1989-12-31T00:00:00Z</time></trkpt>
<trkpt lat="46.14103787" lon="7.24630114"><ele>1508.4458008824</ele><time>1989-12-31T00:00:00Z</time></trkpt>
<trkpt lat="46.14192065" lon="7.24440549"><ele>1506.5231935008</ele><time>1989-12-31T00:00:00Z</time></trkpt>
<trkpt lat="46.14267334" lon="7.24359303"><ele>1498.8325195248</ele><time>1989-12-31T00:00:00Z</time></trkpt>
<trkpt lat="46.14262498" lon="7.24073052"><ele>1508.4458008824</ele><time>1989-12-31T00:00:00Z</time></trkpt>
<trkpt lat="46.14325454" lon="7.24000943"><ele>1515.1750487904</ele><time>1989-12-31T00:00:00Z</time></trkpt>
<trkpt lat="46.14363726" lon="7.23901760"><ele>1517.5783690536</ele><time>1989-12-31T00:00:00Z</time></trkpt>
<trkpt lat="46.14368043" lon="7.23685289"><ele>1527.1916504112</ele><time>1989-12-31T00:00:00Z</time></trkpt>
<trkpt lat="46.14446749" lon="7.23510040"><ele>1531.0368651744</ele><time>1989-12-31T00:00:00Z</time></trkpt>
<trkpt lat="46.14610506" lon="7.23236882"><ele>1542.5727539136</ele><time>1989-12-31T00:00:00Z</time></trkpt>
<trkpt lat="46.14384999" lon="7.23383716"><ele>1552.1857911264</ele><time>1989-12-31T00:00:00Z</time></trkpt>
<trkpt lat="46.14303670" lon="7.23463344"><ele>1559.8762206528</ele><time>1989-12-31T00:00:00Z</time></trkpt>
<trkpt lat="46.14182769" lon="7.23665382"><ele>1578.6220701816</ele><time>1989-12-31T00:00:00Z</time></trkpt>
<trkpt lat="46.14165243" lon="7.23774347"><ele>1585.3513183944</ele><time>1989-12-31T00:00:00Z</time></trkpt>
<trkpt lat="46.14078113" lon="7.23863664"><ele>1594.9643556072</ele><time>1989-12-31T00:00:00Z</time></trkpt>
<trkpt lat="46.14051383" lon="7.23927886"><ele>1599.7712402784</ele><time>1989-12-31T00:00:00Z</time></trkpt>
<trkpt lat="46.14038793" lon="7.24000993"><ele>1603.6164550416</ele><time>1989-12-31T00:00:00Z</time></trkpt>
<trkpt lat="46.13929418" lon="7.24152924"><ele>1621.881347544</ele><time>1989-12-31T00:00:00Z</time></trkpt>
<trkpt lat="46.13923475" lon="7.24122983"><ele>1622.3620604256</ele><time>1989-12-31T00:00:00Z</time></trkpt>
<trkpt lat="46.13951705" lon="7.24039709"><ele>1625.2458497304</ele><time>1989-12-31T00:00:00Z</time></trkpt>
<trkpt lat="46.13971126" lon="7.23875374"><ele>1636.301269428</ele><time>1989-12-31T00:00:00Z</time></trkpt>
<trkpt lat="46.13974429" lon="7.23694693"><ele>1646.875732404</ele><time>1989-12-31T00:00:00Z</time></trkpt>
<trkpt lat="46.14021074" lon="7.23616616"><ele>1654.0856934984</ele><time>1989-12-31T00:00:00Z</time></trkpt>
<trkpt lat="46.14008836" lon="7.23595208"><ele>1656.9694824984</ele><time>1989-12-31T00:00:00Z</time></trkpt>
<trkpt lat="46.13942930" lon="7.23678449"><ele>1660.3342285248</ele><time>1989-12-31T00:00:00Z</time></trkpt>
<trkpt lat="46.13884742" lon="7.23836658"><ele>1665.6215819328</ele><time>1989-12-31T00:00:00Z</time></trkpt>
<trkpt lat="46.13841777" lon="7.23984992"><ele>1675.7150878824</ele><time>1989-12-31T00:00:00Z</time></trkpt>
<trkpt lat="46.13760657" lon="7.24149319"><ele>1686.2897950032</ele><time>1989-12-31T00:00:00Z</time></trkpt>
<trkpt lat="46.13607469" lon="7.24344903"><ele>1702.632080124</ele><time>1989-12-31T00:00:00Z</time></trkpt>
<trkpt lat="46.13565476" lon="7.24372613"><ele>1707.919433532</ele><time>1989-12-31T00:00:00Z</time></trkpt>
<trkpt lat="46.13443896" lon="7.24407088"><ele>1718.493896508</ele><time>1989-12-31T00:00:00Z</time></trkpt>
<trkpt lat="46.13358359" lon="7.24387625"><ele>1726.6652830608</ele><time>1989-12-31T00:00:00Z</time></trkpt>
<trkpt lat="46.13294103" lon="7.24443977"><ele>1729.068359484</ele><time>1989-12-31T00:00:00Z</time></trkpt>
<trkpt lat="46.13270718" lon="7.24483866"><ele>1732.9135742472</ele><time>1989-12-31T00:00:00Z</time></trkpt>
<trkpt lat="46.13250660" lon="7.24605924"><ele>1734.8364257736</ele><time>1989-12-31T00:00:00Z</time></trkpt>
<trkpt lat="46.13175457" lon="7.24753730"><ele>1744.930175868</ele><time>1989-12-31T00:00:00Z</time></trkpt>
<trkpt lat="46.13153983" lon="7.24684797"><ele>1747.3334961312</ele><time>1989-12-31T00:00:00Z</time></trkpt>
<trkpt lat="46.13195959" lon="7.24605815"><ele>1750.6979980128</ele><time>1989-12-31T00:00:00Z</time></trkpt>
<trkpt lat="46.13220912" lon="7.24510772"><ele>1759.350097752</ele><time>1989-12-31T00:00:00Z</time></trkpt>
<trkpt lat="46.13215238" lon="7.24432427"><ele>1763.1953125152</ele><time>1989-12-31T00:00:00Z</time></trkpt>
<trkpt lat="46.13184652" lon="7.24323118"><ele>1773.2893067544</ele><time>1989-12-31T00:00:00Z</time></trkpt>
<trkpt lat="46.13198482" lon="7.24288694"><ele>1774.7312012544</ele><time>1989-12-31T00:00:00Z</time></trkpt>
<trkpt lat="46.13283785" lon="7.24204523"><ele>1783.8635252808</ele><time>1989-12-31T00:00:00Z</time></trkpt>
<trkpt lat="46.13410109" lon="7.24148766"><ele>1795.8801269016</ele><time>1989-12-31T00:00:00Z</time></trkpt>
<trkpt lat="46.13442957" lon="7.24115473"><ele>1799.2446287832</ele><time>1989-12-31T00:00:00Z</time></trkpt>
<trkpt lat="46.13535678" lon="7.23843497"><ele>1817.990234472</ele><time>1989-12-31T00:00:00Z</time></trkpt>
<trkpt lat="46.13547773" lon="7.23610958"><ele>1835.7746582376</ele><time>1989-12-31T00:00:00Z</time></trkpt>
<trkpt lat="46.13520272" lon="7.23626087"><ele>1837.697509764</ele><time>1989-12-31T00:00:00Z</time></trkpt>
<trkpt lat="46.13507716" lon="7.23655734"><ele>1841.0620116456</ele><time>1989-12-31T00:00:00Z</time></trkpt>
<trkpt lat="46.13504204" lon="7.23763668"><ele>1847.7912598584</ele><time>1989-12-31T00:00:00Z</time></trkpt>
<trkpt lat="46.13407854" lon="7.23866665"><ele>1857.4045409112</ele><time>1989-12-31T00:00:00Z</time></trkpt>
<trkpt lat="46.13249159" lon="7.23882448"><ele>1872.304931532</ele><time>1989-12-31T00:00:00Z</time></trkpt>
<trkpt lat="46.13152868" lon="7.23924198"><ele>1881.4372558632</ele><time>1989-12-31T00:00:00Z</time></trkpt>
<trkpt lat="46.12984702" lon="7.24034529"><ele>1901.1445311552</ele><time>1989-12-31T00:00:00Z</time></trkpt>
<trkpt lat="46.13067909" lon="7.23840128"><ele>1913.641357368</ele><time>1989-12-31T00:00:00Z</time></trkpt>
<trkpt lat="46.13238657" lon="7.23621444"><ele>1936.7131348464</ele><time>1989-12-31T00:00:00Z</time></trkpt>
<trkpt lat="46.13243368" lon="7.23499554"><ele>1944.4035643728</ele><time>1989-12-31T00:00:00Z</time></trkpt>
<trkpt lat="46.13296383" lon="7.23181838"><ele>1964.1108399696</ele><time>1989-12-31T00:00:00Z</time></trkpt>
<trkpt lat="46.13320598" lon="7.23120885"><ele>1969.3981933776</ele><time>1989-12-31T00:00:00Z</time></trkpt>
<trkpt lat="46.13306785" lon="7.23117004"><ele>1971.801269496</ele><time>1989-12-31T00:00:00Z</time></trkpt>
<trkpt lat="46.13150136" lon="7.23303376"><ele>1988.1437987616</ele><time>1989-12-31T00:00:00Z</time></trkpt>
<trkpt lat="46.13052947" lon="7.23372594"><ele>1999.1989746192</ele><time>1989-12-31T00:00:00Z</time></trkpt>
<trkpt lat="46.13018724" lon="7.23433815"><ele>2002.5634765008</ele><time>1989-12-31T00:00:00Z</time></trkpt>
<trkpt lat="46.12903473" lon="7.23514114"><ele>2016.0219726216</ele><time>1989-12-31T00:00:00Z</time></trkpt>
<trkpt lat="46.12854137" lon="7.23578135"><ele>2021.7897950712</ele><time>1989-12-31T00:00:00Z</time></trkpt>
<trkpt lat="46.12839142" lon="7.23567464"><ele>2022.7512208344</ele><time>1989-12-31T00:00:00Z</time></trkpt>
<trkpt lat="46.12915015" lon="7.23381755"><ele>2033.8063963872</ele><time>1989-12-31T00:00:00Z</time></trkpt>
<trkpt lat="46.12970989" lon="7.23154329"><ele>2047.7456053896</ele><time>1989-12-31T00:00:00Z</time></trkpt>
<trkpt lat="46.13005640" lon="7.23092143"><ele>2051.1101072712</ele><time>1989-12-31T00:00:00Z</time></trkpt>
<trkpt lat="46.13058647" lon="7.22874038"><ele>2066.97192396</ele><time>1989-12-31T00:00:00Z</time></trkpt>
<trkpt lat="46.13040995" lon="7.22872253"><ele>2069.3752442232</ele><time>1989-12-31T00:00:00Z</time></trkpt>
<trkpt lat="46.12984752" lon="7.22966733"><ele>2073.7009277232</ele><time>1989-12-31T00:00:00Z</time></trkpt>
<trkpt lat="46.12851933" lon="7.23125235"><ele>2087.159423844</ele><time>1989-12-31T00:00:00Z</time></trkpt>
<trkpt lat="46.12697722" lon="7.23237444"><ele>2103.9826659912</ele><time>1989-12-31T00:00:00Z</time></trkpt>
<trkpt lat="46.12611967" lon="7.23259044"><ele>2109.750488136</ele><time>1989-12-31T00:00:00Z</time></trkpt>
<trkpt lat="46.12495610" lon="7.23321472"><ele>2123.2089842568</ele><time>1989-12-31T00:00:00Z</time></trkpt>
<trkpt lat="46.12432913" lon="7.23382878"><ele>2130.4189453512</ele><time>1989-12-31T00:00:00Z</time></trkpt>
<trkpt lat="46.12423215" lon="7.23367615"><ele>2131.8608398512</ele><time>1989-12-31T00:00:00Z</time></trkpt>
<trkpt lat="46.12451814" lon="7.23288582"><ele>2137.1479491144</ele><time>1989-12-31T00:00:00Z</time></trkpt>
<trkpt lat="46.12512952" lon="7.23163214"><ele>2145.8000488536</ele><time>1989-12-31T00:00:00Z</time></trkpt>
<trkpt lat="46.12415613" lon="7.23219146"><ele>2153.49047838</ele><time>1989-12-31T00:00:00Z</time></trkpt>
<trkpt lat="46.12290446" lon="7.23238827"><ele>2160.7004394744</ele><time>1989-12-31T00:00:00Z</time></trkpt>
<trkpt lat="46.12177265" lon="7.23239967"><ele>2170.7941895688</ele><time>1989-12-31T00:00:00Z</time></trkpt>
<trkpt lat="46.12154072" lon="7.23222574"><ele>2166.4682616192</ele><time>1989-12-31T00:00:00Z</time></trkpt>
<trkpt lat="46.12107787" lon="7.23155033"><ele>2156.8552247112</ele><time>1989-12-31T00:00:00Z</time></trkpt>
<trkpt lat="46.12066976" lon="7.22962283"><ele>2140.9934083272</ele><time>1989-12-31T00:00:00Z</time></trkpt>
<trkpt lat="46.12008638" lon="7.22847962"><ele>2127.0544434696</ele><time>1989-12-31T00:00:00Z</time></trkpt>
<trkpt lat="46.11869833" lon="7.22634525"><ele>2103.5019531096</ele><time>1989-12-31T00:00:00Z</time></trkpt>
<trkpt lat="46.11744809" lon="7.22619765"><ele>2089.0820312256</ele><time>1989-12-31T00:00:00Z</time></trkpt>
<trkpt lat="46.11651812" lon="7.22569783"><ele>2078.0270995128</ele><time>1989-12-31T00:00:00Z</time></trkpt>
<trkpt lat="46.11590532" lon="7.22393336"><ele>2060.7233886288</ele><time>1989-12-31T00:00:00Z</time></trkpt>
<trkpt lat="46.11492874" lon="7.22283315"><ele>2048.2260741264</ele><time>1989-12-31T00:00:00Z</time></trkpt>
<trkpt lat="46.11471735" lon="7.22214474"><ele>2043.9001464816</ele><time>1989-12-31T00:00:00Z</time></trkpt>
<trkpt lat="46.11469874" lon="7.22236653"><ele>2041.9775391</ele><time>1989-12-31T00:00:00Z</time></trkpt>
<trkpt lat="46.11476588" lon="7.22306826"><ele>2036.690185692</ele><time>1989-12-31T00:00:00Z</time></trkpt>
<trkpt lat="46.11530090" lon="7.22430719"><ele>2023.7124024528</ele><time>1989-12-31T00:00:00Z</time></trkpt>
<trkpt lat="46.11545873" lon="7.22521143"><ele>2018.4252928848</ele><time>1989-12-31T00:00:00Z</time></trkpt>
<trkpt lat="46.11547549" lon="7.22631407"><ele>2007.370117332</ele><time>1989-12-31T00:00:00Z</time></trkpt>
<trkpt lat="46.11591387" lon="7.22794267"><ele>1995.3535157112</ele><time>1989-12-31T00:00:00Z</time></trkpt>
<trkpt lat="46.11646749" lon="7.23113207"><ele>1971.3205566144</ele><time>1989-12-31T00:00:00Z</time></trkpt>
<trkpt lat="46.11640848" lon="7.23368377"><ele>1952.0942383488</ele><time>1989-12-31T00:00:00Z</time></trkpt>
<trkpt lat="46.11618913" lon="7.23440009"><ele>1945.364990136</ele><time>1989-12-31T00:00:00Z</time></trkpt>
<trkpt lat="46.11575629" lon="7.23499110"><ele>1938.6359863728</ele><time>1989-12-31T00:00:00Z</time></trkpt>
<trkpt lat="46.11480234" lon="7.23550575"><ele>1926.1386718704</ele><time>1989-12-31T00:00:00Z</time></trkpt>
<trkpt lat="46.11454837" lon="7.23617898"><ele>1919.890136844</ele><time>1989-12-31T00:00:00Z</time></trkpt>
<trkpt lat="46.11348487" lon="7.23790247"><ele>1899.2216796288</ele><time>1989-12-31T00:00:00Z</time></trkpt>
<trkpt lat="46.11190137" lon="7.23927224"><ele>1879.5146484816</ele><time>1989-12-31T00:00:00Z</time></trkpt>
<trkpt lat="46.11053503" lon="7.24005058"><ele>1862.2109375976</ele><time>1989-12-31T00:00:00Z</time></trkpt>
<trkpt lat="46.10930138" lon="7.24046809"><ele>1846.8298340952</ele><time>1989-12-31T00:00:00Z</time></trkpt>
<trkpt lat="46.10900894" lon="7.24093462"><ele>1841.0620116456</ele><time>1989-12-31T00:00:00Z</time></trkpt>
<trkpt lat="46.10790806" lon="7.24071502"><ele>1828.0842284064</ele><time>1989-12-31T00:00:00Z</time></trkpt>
<trkpt lat="46.10680106" lon="7.24125607"><ele>1815.1064451672</ele><time>1989-12-31T00:00:00Z</time></trkpt>
<trkpt lat="46.10601777" lon="7.24097385"><ele>1805.0126953776</ele><time>1989-12-31T00:00:00Z</time></trkpt>
<trkpt lat="46.10298998" lon="7.24157056"><ele>1768.96313466</ele><time>1989-12-31T00:00:00Z</time></trkpt>
<trkpt lat="46.10184669" lon="7.24217875"><ele>1754.543212776</ele><time>1989-12-31T00:00:00Z</time></trkpt>
<trkpt lat="46.10175557" lon="7.24191095"><ele>1752.6206053944</ele><time>1989-12-31T00:00:00Z</time></trkpt>
<trkpt lat="46.10315326" lon="7.24054906"><ele>1737.7202147736</ele><time>1989-12-31T00:00:00Z</time></trkpt>
<trkpt lat="46.10485956" lon="7.23948330"><ele>1718.0131836264</ele><time>1989-12-31T00:00:00Z</time></trkpt>
<trkpt lat="46.10667223" lon="7.23726595"><ele>1694.4609374112</ele><time>1989-12-31T00:00:00Z</time></trkpt>
<trkpt lat="46.10730238" lon="7.23607765"><ele>1684.3671876216</ele><time>1989-12-31T00:00:00Z</time></trkpt>
<trkpt lat="46.10732677" lon="7.23565662"><ele>1681.0026854352</ele><time>1989-12-31T00:00:00Z</time></trkpt>
<trkpt lat="46.10703140" lon="7.23457955"><ele>1674.753906264</ele><time>1989-12-31T00:00:00Z</time></trkpt>
<trkpt lat="46.10779046" lon="7.23248818"><ele>1657.9309082616</ele><time>1989-12-31T00:00:00Z</time></trkpt>
<trkpt lat="46.10757806" lon="7.23176206"><ele>1651.6823729304</ele><time>1989-12-31T00:00:00Z</time></trkpt>
<trkpt lat="46.10652639" lon="7.23021249"><ele>1638.704589996</ele><time>1989-12-31T00:00:00Z</time></trkpt>
<trkpt lat="46.10618918" lon="7.22898806"><ele>1629.0913086384</ele><time>1989-12-31T00:00:00Z</time></trkpt>
<trkpt lat="46.10589632" lon="7.22860468"><ele>1626.2072754936</ele><time>1989-12-31T00:00:00Z</time></trkpt>
<trkpt lat="46.10382834" lon="7.22693215"><ele>1606.01953116</ele><time>1989-12-31T00:00:00Z</time></trkpt>
<trkpt lat="46.10356405" lon="7.22646997"><ele>1602.1743163968</ele><time>1989-12-31T00:00:00Z</time></trkpt>
<trkpt lat="46.10344922" lon="7.22587436"><ele>1599.2905273968</ele><time>1989-12-31T00:00:00Z</time></trkpt>
<trkpt lat="46.10344587" lon="7.22501186"><ele>1593.5224608024</ele><time>1989-12-31T00:00:00Z</time></trkpt>
<trkpt lat="46.10236477" lon="7.22787344"><ele>1571.412109392</ele><time>1989-12-31T00:00:00Z</time></trkpt>
<trkpt lat="46.10158525" lon="7.22882227"><ele>1561.7990721792</ele><time>1989-12-31T00:00:00Z</time></trkpt>
<trkpt lat="46.09955868" lon="7.22994016"><ele>1538.2468262688</ele><time>1989-12-31T00:00:00Z</time></trkpt>
<trkpt lat="46.09792865" lon="7.22990504"><ele>1521.9042970032</ele><time>1989-12-31T00:00:00Z</time></trkpt>
<trkpt lat="46.09677907" lon="7.22926777"><ele>1508.926513764</ele><time>1989-12-31T00:00:00Z</time></trkpt>
<trkpt lat="46.09625386" lon="7.22927347"><ele>1504.1201170776</ele><time>1989-12-31T00:00:00Z</time></trkpt>
<trkpt lat="46.09609234" lon="7.22897558"><ele>1500.7553710512</ele><time>1989-12-31T00:00:00Z</time></trkpt>
</trkseg></trk></gpx>